Observation data for Caprock Canyons on 05/25/2019      Previous  Date  Next       Current Mesonet Observations  Soil Data  Daily Summary Page  Observations in Plain Language
KQU1 250500Z 17016KT 21/18 A2998 RMK A01 T02110175  RH  080%=      5-min Rain = 0
KQU1 250501Z 17016KT 21/17 A2998 RMK A01 T02110174  RH  080%=      5-min Rain = 0
KQU1 250502Z 17017KT 21/17 A2997 RMK A01 T02100174  RH  080%=      5-min Rain = 0
KQU1 250503Z 16016KT 21/17 A2997 RMK A01 T02090174  RH  080%=      5-min Rain = 0
KQU1 250504Z 16018KT 21/17 A2997 RMK A01 T02090174  RH  080%=      5-min Rain = 0
KQU1 250505Z 16018KT 21/17 A2997 RMK A01 T02090174  RH  080%=      5-min Rain = 0
KQU1 250506Z 16021KT 21/17 A2997 RMK A01 T02090173  RH  080%=      5-min Rain = 0
KQU1 250507Z 16020KT 21/17 A2997 RMK A01 T02090173  RH  080%=      5-min Rain = 0
KQU1 250508Z 16019G24KT 21/17 A2997 RMK A01 T02080173  RH  080%=      5-min Rain = 0
KQU1 250509Z 16019KT 21/17 A2997 RMK A01 T02080173  RH  081%=      5-min Rain = 0
KQU1 250510Z 17018KT 21/17 A2997 RMK A01 T02080173  RH  081%=      5-min Rain = 0
KQU1 250511Z 17018KT 21/17 A2997 RMK A01 T02070173  RH  081%=      5-min Rain = 0
KQU1 250512Z 17018KT 21/17 A2997 RMK A01 T02070173  RH  081%=      5-min Rain = 0
KQU1 250513Z 17020KT 21/17 A2997 RMK A01 T02060173  RH  081%=      5-min Rain = 0
KQU1 250514Z 17018KT 21/17 A2997 RMK A01 T02060173  RH  081%=      5-min Rain = 0
KQU1 250515Z 17019KT 21/17 A2997 RMK A01 T02060173  RH  081%=      5-min Rain = 0
KQU1 250516Z 16016KT 21/17 A2997 RMK A01 T02050172  RH  081%=      5-min Rain = 0
KQU1 250517Z 16018KT 21/17 A2997 RMK A01 T02050172  RH  082%=      5-min Rain = 0
KQU1 250518Z 17016KT 20/17 A2997 RMK A01 T02040172  RH  082%=      5-min Rain = 0
KQU1 250519Z 17016KT 20/17 A2997 RMK A01 T02030172  RH  082%=      5-min Rain = 0
KQU1 250520Z 17014KT 20/17 A2997 RMK A01 T02020172  RH  082%=      5-min Rain = 0
KQU1 250521Z 17015KT 20/17 A2997 RMK A01 T02020171  RH  083%=      5-min Rain = 0
KQU1 250522Z 17015KT 20/17 A2997 RMK A01 T02010171  RH  083%=      5-min Rain = 0
KQU1 250523Z 17014KT 20/17 A2997 RMK A01 T02010171  RH  083%=      5-min Rain = 0
KQU1 250524Z 17014KT 20/17 A2997 RMK A01 T02000171  RH  084%=      5-min Rain = 0
KQU1 250525Z 17014KT 20/17 A2997 RMK A01 T01990171  RH  084%=      5-min Rain = 0
KQU1 250526Z 17014KT 20/17 A2997 RMK A01 T01980171  RH  084%=      5-min Rain = 0
KQU1 250527Z 17013KT 20/17 A2997 RMK A01 T01970171  RH  085%=      5-min Rain = 0
KQU1 250528Z 18013KT 20/17 A2997 RMK A01 T01970171  RH  085%=      5-min Rain = 0
KQU1 250529Z 17012KT 20/17 A2997 RMK A01 T01960171  RH  086%=      5-min Rain = 0
KQU1 250530Z 17013KT 20/17 A2997 RMK A01 T01960171  RH  086%=      5-min Rain = 0
KQU1 250531Z 17013KT 20/17 A2997 RMK A01 T01960171  RH  086%=      5-min Rain = 0
KQU1 250532Z 18013KT 20/17 A2997 RMK A01 T01960171  RH  086%=      5-min Rain = 0
KQU1 250533Z 17014KT 20/17 A2998 RMK A01 T01960172  RH  086%=      5-min Rain = 0
KQU1 250534Z 18014KT 20/17 A2998 RMK A01 T01960171  RH  086%=      5-min Rain = 0
KQU1 250535Z 18013KT 20/17 A2998 RMK A01 T01960172  RH  086%=      5-min Rain = 0
KQU1 250536Z 18014KT 20/17 A2998 RMK A01 T01960171  RH  086%=      5-min Rain = 0
KQU1 250537Z 18013KT 20/17 A2998 RMK A01 T01960171  RH  086%=      5-min Rain = 0
KQU1 250538Z 18013KT 20/17 A2998 RMK A01 T01950171  RH  086%=      5-min Rain = 0
KQU1 250539Z 18013KT 20/17 A2998 RMK A01 T01950171  RH  086%=      5-min Rain = 0
KQU1 250540Z 18013KT 20/17 A2998 RMK A01 T01950171  RH  086%=      5-min Rain = 0
KQU1 250541Z 18014KT 20/17 A2998 RMK A01 T01950171  RH  086%=      5-min Rain = 0
KQU1 250542Z 18015KT 20/17 A2998 RMK A01 T01950171  RH  086%=      5-min Rain = 0
KQU1 250543Z 18014KT 20/17 A2998 RMK A01 T01950171  RH  086%=      5-min Rain = 0
KQU1 250544Z 18013KT 20/17 A2998 RMK A01 T01950171  RH  086%=      5-min Rain = 0
KQU1 250545Z 18013KT 20/17 A2997 RMK A01 T01950171  RH  086%=      5-min Rain = 0
KQU1 250546Z 18013KT 19/17 A2997 RMK A01 T01940170  RH  086%=      5-min Rain = 0
KQU1 250547Z 18014KT 19/17 A2997 RMK A01 T01940170  RH  086%=      5-min Rain = 0
KQU1 250548Z 18014KT 19/17 A2997 RMK A01 T01940170  RH  086%=      5-min Rain = 0
KQU1 250549Z 18012KT 19/17 A2997 RMK A01 T01940170  RH  086%=      5-min Rain = 0
KQU1 250550Z 18013KT 19/17 A2997 RMK A01 T01940170  RH  086%=      5-min Rain = 0
KQU1 250551Z 18013KT 19/17 A2997 RMK A01 T01940170  RH  086%=      5-min Rain = 0
KQU1 250552Z 18013KT 19/17 A2997 RMK A01 T01940170  RH  086%=      5-min Rain = 0
KQU1 250553Z 18013KT 19/17 A2997 RMK A01 T01930170  RH  086%=      5-min Rain = 0
KQU1 250554Z 18013KT 19/17 A2997 RMK A01 T01930170  RH  086%=      5-min Rain = 0
KQU1 250555Z 17013KT 19/17 A2997 RMK A01 T01930169  RH  086%=      5-min Rain = 0
KQU1 250556Z 18013KT 19/17 A2997 RMK A01 T01930169  RH  086%=      5-min Rain = 0
KQU1 250557Z 18013KT 19/17 A2997 RMK A01 T01920169  RH  086%=      5-min Rain = 0
KQU1 250558Z 18014KT 19/17 A2997 RMK A01 T01920169  RH  087%=      5-min Rain = 0
KQU1 250559Z 18015KT 19/17 A2998 RMK A01 T01920169  RH  087%=      5-min Rain = 0
KQU1 250600Z 18014KT 19/17 A2998 RMK A01 T01920169  RH  087%=      5-min Rain = 0
KQU1 250601Z 18014KT 19/17 A2998 RMK A01 T01920169  RH  087%=      5-min Rain = 0
KQU1 250602Z 18013KT 19/17 A2998 RMK A01 T01910169  RH  087%=      5-min Rain = 0
KQU1 250603Z 18013KT 19/17 A2998 RMK A01 T01910169  RH  087%=      5-min Rain = 0
KQU1 250604Z 18013KT 19/17 A2998 RMK A01 T01900169  RH  087%=      5-min Rain = 0
KQU1 250605Z 18011KT 19/17 A2998 RMK A01 T01900169  RH  087%=      5-min Rain = 0
KQU1 250606Z 18014KT 19/17 A2998 RMK A01 T01900169  RH  088%=      5-min Rain = 0
KQU1 250607Z 18013KT 19/17 A2998 RMK A01 T01900169  RH  087%=      5-min Rain = 0
KQU1 250608Z 17012KT 19/17 A2998 RMK A01 T01900168  RH  087%=      5-min Rain = 0
KQU1 250609Z 18012KT 19/17 A2997 RMK A01 T01900168  RH  087%=      5-min Rain = 0
KQU1 250610Z 18012KT 19/17 A2997 RMK A01 T01890168  RH  088%=      5-min Rain = 0
KQU1 250611Z 17013KT 19/17 A2997 RMK A01 T01890168  RH  088%=      5-min Rain = 0
KQU1 250612Z 17012KT 19/17 A2997 RMK A01 T01890168  RH  088%=      5-min Rain = 0
KQU1 250613Z 17012KT 19/17 A2997 RMK A01 T01890168  RH  088%=      5-min Rain = 0
KQU1 250614Z 17014KT 19/17 A2997 RMK A01 T01890168  RH  088%=      5-min Rain = 0
KQU1 250615Z 17013KT 19/17 A2997 RMK A01 T01890168  RH  088%=      5-min Rain = 0
KQU1 250616Z 17012KT 19/17 A2997 RMK A01 T01890168  RH  088%=      5-min Rain = 0
KQU1 250617Z 17012KT 19/17 A2997 RMK A01 T01890168  RH  088%=      5-min Rain = 0
KQU1 250618Z 17012KT 19/17 A2997 RMK A01 T01890168  RH  088%=      5-min Rain = 0
KQU1 250619Z 17012KT 19/17 A2997 RMK A01 T01890167  RH  088%=      5-min Rain = 0
KQU1 250620Z 17012KT 19/17 A2997 RMK A01 T01880167  RH  088%=      5-min Rain = 0
KQU1 250621Z 17013KT 19/17 A2997 RMK A01 T01880167  RH  088%=      5-min Rain = 0
KQU1 250622Z 17012KT 19/17 A2997 RMK A01 T01880167  RH  088%=      5-min Rain = 0
KQU1 250623Z 17014KT 19/17 A2997 RMK A01 T01880167  RH  088%=      5-min Rain = 0
KQU1 250624Z 18013KT 19/17 A2997 RMK A01 T01870167  RH  088%=      5-min Rain = 0
KQU1 250625Z 18013KT 19/17 A2997 RMK A01 T01870167  RH  088%=      5-min Rain = 0
KQU1 250626Z 17013KT 19/17 A2997 RMK A01 T01870167  RH  088%=      5-min Rain = 0
KQU1 250627Z 17012KT 19/17 A2997 RMK A01 T01870167  RH  088%=      5-min Rain = 0
KQU1 250628Z 18013KT 19/17 A2997 RMK A01 T01860167  RH  088%=      5-min Rain = 0
KQU1 250629Z 18013KT 19/17 A2997 RMK A01 T01860167  RH  088%=      5-min Rain = 0
KQU1 250630Z 18013KT 19/17 A2997 RMK A01 T01860167  RH  088%=      5-min Rain = 0
KQU1 250631Z 18012KT 19/17 A2997 RMK A01 T01860167  RH  088%=      5-min Rain = 0
KQU1 250632Z 18013KT 19/17 A2997 RMK A01 T01860166  RH  088%=      5-min Rain = 0
KQU1 250633Z 18012KT 19/17 A2997 RMK A01 T01860166  RH  089%=      5-min Rain = 0
KQU1 250634Z 18012KT 19/17 A2997 RMK A01 T01850166  RH  089%=      5-min Rain = 0
KQU1 250635Z 18011KT 19/17 A2997 RMK A01 T01850166  RH  089%=      5-min Rain = 0
KQU1 250636Z 18013KT 19/17 A2997 RMK A01 T01850166  RH  089%=      5-min Rain = 0
KQU1 250637Z 18013KT 19/17 A2997 RMK A01 T01850166  RH  089%=      5-min Rain = 0
KQU1 250638Z 19010KT 19/17 A2997 RMK A01 T01850166  RH  089%=      5-min Rain = 0
KQU1 250639Z 19012KT 18/17 A2997 RMK A01 T01840166  RH  089%=      5-min Rain = 0
KQU1 250640Z 18012KT 18/17 A2997 RMK A01 T01840166  RH  089%=      5-min Rain = 0
KQU1 250641Z 18012KT 18/17 A2997 RMK A01 T01840166  RH  089%=      5-min Rain = 0
KQU1 250642Z 18011KT 18/17 A2997 RMK A01 T01840165  RH  089%=      5-min Rain = 0
KQU1 250643Z 18012KT 18/17 A2997 RMK A01 T01830165  RH  089%=      5-min Rain = 0
KQU1 250644Z 18011KT 18/17 A2997 RMK A01 T01830165  RH  089%=      5-min Rain = 0
KQU1 250645Z 18010KT 18/17 A2997 RMK A01 T01830165  RH  089%=      5-min Rain = 0
KQU1 250646Z 18011KT 18/17 A2996 RMK A01 T01820165  RH  090%=      5-min Rain = 0
KQU1 250647Z 18012KT 18/17 A2996 RMK A01 T01820165  RH  090%=      5-min Rain = 0
KQU1 250648Z 18011KT 18/17 A2996 RMK A01 T01820165  RH  090%=      5-min Rain = 0
KQU1 250649Z 18012KT 18/17 A2996 RMK A01 T01820165  RH  090%=      5-min Rain = 0
KQU1 250650Z 18012KT 18/17 A2996 RMK A01 T01820165  RH  090%=      5-min Rain = 0
KQU1 250651Z 18012KT 18/17 A2996 RMK A01 T01820165  RH  090%=      5-min Rain = 0
KQU1 250652Z 18012KT 18/17 A2996 RMK A01 T01820165  RH  090%=      5-min Rain = 0
KQU1 250653Z 17012KT 18/17 A2996 RMK A01 T01820165  RH  090%=      5-min Rain = 0
KQU1 250654Z 18012KT 18/17 A2996 RMK A01 T01820165  RH  089%=      5-min Rain = 0
KQU1 250655Z 18012KT 18/17 A2996 RMK A01 T01820165  RH  090%=      5-min Rain = 0
KQU1 250656Z 17011KT 18/16 A2996 RMK A01 T01820164  RH  089%=      5-min Rain = 0
KQU1 250657Z 17011KT 18/16 A2996 RMK A01 T01820164  RH  090%=      5-min Rain = 0
KQU1 250658Z 17011KT 18/16 A2996 RMK A01 T01810164  RH  090%=      5-min Rain = 0
KQU1 250659Z 17011KT 18/16 A2997 RMK A01 T01810164  RH  090%=      5-min Rain = 0
KQU1 250700Z 17013KT 18/16 A2997 RMK A01 T01800164  RH  090%=      5-min Rain = 0
KQU1 250701Z 17012KT 18/16 A2997 RMK A01 T01810164  RH  090%=      5-min Rain = 0
KQU1 250702Z 17012KT 18/16 A2997 RMK A01 T01810164  RH  090%=      5-min Rain = 0
KQU1 250703Z 17012KT 18/16 A2997 RMK A01 T01810164  RH  090%=      5-min Rain = 0
KQU1 250704Z 17012KT 18/16 A2997 RMK A01 T01810164  RH  090%=      5-min Rain = 0
KQU1 250705Z 17012KT 18/16 A2997 RMK A01 T01810164  RH  090%=      5-min Rain = 0
KQU1 250706Z 17014KT 18/16 A2997 RMK A01 T01810164  RH  090%=      5-min Rain = 0
KQU1 250707Z 17012KT 18/16 A2997 RMK A01 T01810164  RH  090%=      5-min Rain = 0
KQU1 250708Z 17012KT 18/16 A2997 RMK A01 T01820164  RH  090%=      5-min Rain = 0
KQU1 250709Z 17014KT 18/16 A2997 RMK A01 T01820164  RH  090%=      5-min Rain = 0
KQU1 250710Z 17013KT 18/16 A2997 RMK A01 T01820164  RH  089%=      5-min Rain = 0
KQU1 250711Z 17011KT 18/17 A2997 RMK A01 T01820165  RH  089%=      5-min Rain = 0
KQU1 250712Z 17014KT 18/16 A2996 RMK A01 T01820164  RH  089%=      5-min Rain = 0
KQU1 250713Z 17011KT 18/16 A2996 RMK A01 T01820164  RH  089%=      5-min Rain = 0
KQU1 250714Z 17010KT 18/17 A2996 RMK A01 T01820165  RH  090%=      5-min Rain = 0
KQU1 250715Z 17015KT 18/16 A2996 RMK A01 T01820164  RH  090%=      5-min Rain = 0
KQU1 250716Z 17012KT 18/17 A2996 RMK A01 T01820165  RH  090%=      5-min Rain = 0
KQU1 250717Z 17012KT 18/17 A2996 RMK A01 T01820165  RH  090%=      5-min Rain = 0
KQU1 250718Z 17011KT 18/17 A2996 RMK A01 T01820165  RH  090%=      5-min Rain = 0
KQU1 250719Z 17012KT 18/17 A2996 RMK A01 T01820165  RH  090%=      5-min Rain = 0
KQU1 250720Z 17012KT 18/17 A2996 RMK A01 T01810165  RH  090%=      5-min Rain = 0
KQU1 250721Z 18013KT 18/17 A2996 RMK A01 T01810165  RH  090%=      5-min Rain = 0
KQU1 250722Z 17014KT 18/17 A2996 RMK A01 T01810165  RH  090%=      5-min Rain = 0
KQU1 250723Z 17013KT 18/17 A2996 RMK A01 T01810165  RH  090%=      5-min Rain = 0
KQU1 250724Z 17011KT 18/17 A2996 RMK A01 T01810165  RH  090%=      5-min Rain = 0
KQU1 250725Z 17013KT 18/17 A2996 RMK A01 T01800165  RH  091%=      5-min Rain = 0
KQU1 250726Z 17014KT 18/17 A2996 RMK A01 T01800165  RH  091%=      5-min Rain = 0
KQU1 250727Z 17016KT 18/17 A2996 RMK A01 T01800165  RH  091%=      5-min Rain = 0
KQU1 250728Z 17015KT 18/17 A2996 RMK A01 T01800165  RH  091%=      5-min Rain = 0
KQU1 250729Z 17013KT 18/17 A2996 RMK A01 T01800165  RH  091%=      5-min Rain = 0
KQU1 250730Z 16014KT 18/17 A2996 RMK A01 T01800165  RH  091%=      5-min Rain = 0
KQU1 250731Z 16016KT 18/17 A2996 RMK A01 T01800165  RH  091%=      5-min Rain = 0
KQU1 250732Z 16015KT 18/17 A2996 RMK A01 T01790165  RH  091%=      5-min Rain = 0
KQU1 250733Z 17017KT 18/17 A2996 RMK A01 T01790165  RH  091%=      5-min Rain = 0
KQU1 250734Z 17014KT 18/17 A2996 RMK A01 T01790165  RH  091%=      5-min Rain = 0
KQU1 250735Z 17014KT 18/17 A2996 RMK A01 T01790165  RH  092%=      5-min Rain = 0
KQU1 250736Z 17014KT 18/17 A2996 RMK A01 T01790165  RH  092%=      5-min Rain = 0
KQU1 250737Z 17013KT 18/17 A2996 RMK A01 T01790165  RH  092%=      5-min Rain = 0
KQU1 250738Z 16016KT 18/17 A2996 RMK A01 T01790165  RH  092%=      5-min Rain = 0
KQU1 250739Z 17015KT 18/17 A2996 RMK A01 T01790166  RH  092%=      5-min Rain = 0
KQU1 250740Z 17012KT 18/17 A2996 RMK A01 T01790166  RH  092%=      5-min Rain = 0
KQU1 250741Z 17013KT 18/17 A2996 RMK A01 T01780166  RH  092%=      5-min Rain = 0
KQU1 250742Z 16013G18KT 18/17 A2996 RMK A01 T01780166  RH  092%=      5-min Rain = 0
KQU1 250743Z 16014KT 18/17 A2996 RMK A01 T01780166  RH  092%=      5-min Rain = 0
KQU1 250744Z 17014KT 18/17 A2996 RMK A01 T01780166  RH  092%=      5-min Rain = 0
KQU1 250745Z 16015KT 18/17 A2996 RMK A01 T01780166  RH  093%=      5-min Rain = 0
KQU1 250746Z 16016KT 18/17 A2996 RMK A01 T01780166  RH  093%=      5-min Rain = 0
KQU1 250747Z 16015KT 18/17 A2996 RMK A01 T01780166  RH  093%=      5-min Rain = 0
KQU1 250748Z 17016KT 18/17 A2996 RMK A01 T01780166  RH  093%=      5-min Rain = 0
KQU1 250749Z 16017KT 18/17 A2996 RMK A01 T01780166  RH  093%=      5-min Rain = 0
KQU1 250750Z 16016KT 18/17 A2996 RMK A01 T01780166  RH  093%=      5-min Rain = 0
KQU1 250751Z 16014KT 18/17 A2996 RMK A01 T01770166  RH  093%=      5-min Rain = 0
KQU1 250752Z 16014KT 18/17 A2996 RMK A01 T01770166  RH  093%=      5-min Rain = 0
KQU1 250753Z 16014G19KT 18/17 A2996 RMK A01 T01770166  RH  093%=      5-min Rain = 0
KQU1 250754Z 16012KT 18/17 A2996 RMK A01 T01770166  RH  093%=      5-min Rain = 0
KQU1 250755Z 16011KT 18/17 A2996 RMK A01 T01770166  RH  094%=      5-min Rain = 0
KQU1 250756Z 16012KT 18/17 A2996 RMK A01 T01770166  RH  094%=      5-min Rain = 0
KQU1 250757Z 16012KT 18/17 A2996 RMK A01 T01770166  RH  094%=      5-min Rain = 0
KQU1 250758Z 16015KT 18/17 A2996 RMK A01 T01760166  RH  094%=      5-min Rain = 0
KQU1 250759Z 15016KT 18/17 A2996 RMK A01 T01760166  RH  094%=      5-min Rain = 0
KQU1 250800Z 16016G21KT 18/17 A2996 RMK A01 T01760166  RH  094%=      5-min Rain = 0
KQU1 250801Z 16016KT 18/17 A2996 RMK A01 T01760166  RH  094%=      5-min Rain = 0
KQU1 250802Z 17015KT 18/17 A2996 RMK A01 T01760166  RH  094%=      5-min Rain = 0
KQU1 250803Z 16013KT 18/17 A2996 RMK A01 T01750166  RH  094%=      5-min Rain = 0
KQU1 250804Z 17016KT 18/17 A2996 RMK A01 T01750166  RH  095%=      5-min Rain = 0
KQU1 250805Z 16018KT 18/17 A2996 RMK A01 T01750167  RH  095%=      5-min Rain = 0
KQU1 250806Z 16015G20KT 18/17 A2996 RMK A01 T01750167  RH  095%=      5-min Rain = 0
KQU1 250807Z 16016KT 18/17 A2995 RMK A01 T01750167  RH  095%=      5-min Rain = 0
KQU1 250808Z 17017KT 18/17 A2995 RMK A01 T01750167  RH  095%=      5-min Rain = 0
KQU1 250809Z 17015KT 18/17 A2995 RMK A01 T01750167  RH  095%=      5-min Rain = 0
KQU1 250810Z 17015G20KT 17/17 A2995 RMK A01 T01740167  RH  095%=      5-min Rain = 0
KQU1 250811Z 16013KT 17/17 A2995 RMK A01 T01740167  RH  095%=      5-min Rain = 0
KQU1 250812Z 16014KT 17/17 A2995 RMK A01 T01740167  RH  095%=      5-min Rain = 0
KQU1 250813Z 17016G21KT 17/17 A2995 RMK A01 T01740167  RH  096%=      5-min Rain = 0
KQU1 250814Z 17016KT 17/17 A2995 RMK A01 T01740167  RH  096%=      5-min Rain = 0
KQU1 250815Z 17016KT 17/17 A2995 RMK A01 T01740167  RH  096%=      5-min Rain = 0
KQU1 250816Z 17015KT 17/17 A2995 RMK A01 T01730167  RH  096%=      5-min Rain = 0
KQU1 250817Z 16016KT 17/17 A2995 RMK A01 T01730167  RH  096%=      5-min Rain = 0
KQU1 250818Z 17016KT 17/17 A2995 RMK A01 T01730167  RH  096%=      5-min Rain = 0
KQU1 250819Z 17016KT 17/17 A2995 RMK A01 T01730167  RH  096%=      5-min Rain = 0
KQU1 250820Z 16014KT 17/17 A2995 RMK A01 T01730167  RH  096%=      5-min Rain = 0
KQU1 250821Z 17014KT 17/17 A2995 RMK A01 T01720167  RH  096%=      5-min Rain = 0
KQU1 250822Z 16016KT 17/17 A2995 RMK A01 T01720167  RH  097%=      5-min Rain = 0
KQU1 250823Z 17014KT 17/17 A2995 RMK A01 T01720167  RH  097%=      5-min Rain = 0
KQU1 250824Z 17015KT 17/17 A2995 RMK A01 T01720167  RH  097%=      5-min Rain = 0
KQU1 250825Z 17016KT 17/17 A2995 RMK A01 T01720167  RH  097%=      5-min Rain = 0
KQU1 250826Z 17015KT 17/17 A2995 RMK A01 T01720167  RH  097%=      5-min Rain = 0
KQU1 250827Z 16013KT 17/17 A2995 RMK A01 T01720167  RH  097%=      5-min Rain = 0
KQU1 250828Z 16015KT 17/17 A2995 RMK A01 T01720168  RH  097%=      5-min Rain = 0
KQU1 250829Z 16011KT 17/17 A2995 RMK A01 T01720168  RH  097%=      5-min Rain = 0
KQU1 250830Z 17013KT 17/17 A2995 RMK A01 T01720168  RH  097%=      5-min Rain = 0
KQU1 250831Z 17015KT 17/17 A2995 RMK A01 T01720168  RH  097%=      5-min Rain = 0
KQU1 250832Z 17017KT 17/17 A2995 RMK A01 T01720168  RH  097%=      5-min Rain = 0
KQU1 250833Z 17016KT 17/17 A2995 RMK A01 T01720168  RH  097%=      5-min Rain = 0
KQU1 250834Z 17014KT 17/17 A2995 RMK A01 T01720168  RH  097%=      5-min Rain = 0
KQU1 250835Z 17013KT 17/17 A2995 RMK A01 T01720168  RH  097%=      5-min Rain = 0
KQU1 250836Z 17012KT 17/17 A2995 RMK A01 T01720169  RH  098%=      5-min Rain = 0
KQU1 250837Z 16015KT 17/17 A2995 RMK A01 T01720169  RH  098%=      5-min Rain = 0
KQU1 250838Z 17014KT 17/17 A2995 RMK A01 T01720169  RH  098%=      5-min Rain = 0
KQU1 250839Z 17014KT 17/17 A2995 RMK A01 T01720169  RH  098%=      5-min Rain = 0
KQU1 250840Z 17013KT 17/17 A2995 RMK A01 T01730169  RH  098%=      5-min Rain = 0
KQU1 250841Z 16012KT 17/17 A2995 RMK A01 T01720169  RH  098%=      5-min Rain = 0
KQU1 250842Z 16013KT 17/17 A2995 RMK A01 T01730169  RH  098%=      5-min Rain = 0
KQU1 250843Z 17012KT 17/17 A2995 RMK A01 T01730169  RH  098%=      5-min Rain = 0
KQU1 250844Z 16013KT 17/17 A2995 RMK A01 T01730169  RH  098%=      5-min Rain = 0
KQU1 250845Z 16013KT 17/17 A2995 RMK A01 T01730169  RH  098%=      5-min Rain = 0
KQU1 250846Z 16015KT 17/17 A2995 RMK A01 T01730169  RH  098%=      5-min Rain = 0
KQU1 250847Z 17013KT 17/17 A2995 RMK A01 T01730169  RH  098%=      5-min Rain = 0
KQU1 250848Z 17012KT 17/17 A2995 RMK A01 T01730169  RH  098%=      5-min Rain = 0
KQU1 250849Z 17014KT 17/17 A2995 RMK A01 T01730170  RH  098%=      5-min Rain = 0
KQU1 250850Z 17012KT 17/17 A2995 RMK A01 T01730170  RH  098%=      5-min Rain = 0
KQU1 250851Z 16012KT 17/17 A2995 RMK A01 T01730170  RH  098%=      5-min Rain = 0
KQU1 250852Z 17011KT 17/17 A2995 RMK A01 T01730170  RH  098%=      5-min Rain = 0
KQU1 250853Z 16012KT 17/17 A2995 RMK A01 T01730170  RH  098%=      5-min Rain = 0
KQU1 250854Z 17011KT 17/17 A2995 RMK A01 T01730170  RH  098%=      5-min Rain = 0
KQU1 250855Z 16010KT 17/17 A2995 RMK A01 T01730170  RH  098%=      5-min Rain = 0
KQU1 250856Z 17011KT 17/17 A2995 RMK A01 T01730170  RH  098%=      5-min Rain = 0
KQU1 250857Z 17013KT 17/17 A2995 RMK A01 T01730170  RH  098%=      5-min Rain = 0
KQU1 250858Z 17012KT 17/17 A2995 RMK A01 T01730170  RH  098%=      5-min Rain = 0
KQU1 250859Z 17010KT 17/17 A2995 RMK A01 T01730170  RH  098%=      5-min Rain = 0
KQU1 250900Z 17011KT 17/17 A2995 RMK A01 T01730170  RH  098%=      5-min Rain = 0
KQU1 250901Z 17012KT 17/17 A2995 RMK A01 T01730171  RH  098%=      5-min Rain = 0
KQU1 250902Z 17010KT 17/17 A2995 RMK A01 T01730171  RH  098%=      5-min Rain = 0
KQU1 250903Z 16012KT 17/17 A2995 RMK A01 T01730171  RH  098%=      5-min Rain = 0
KQU1 250904Z 17010KT 17/17 A2995 RMK A01 T01730171  RH  098%=      5-min Rain = 0
KQU1 250905Z 17010KT 17/17 A2995 RMK A01 T01730171  RH  098%=      5-min Rain = 0
KQU1 250906Z 17009KT 17/17 A2995 RMK A01 T01740171  RH  098%=      5-min Rain = 0
KQU1 250907Z 16012KT 17/17 A2995 RMK A01 T01740171  RH  098%=      5-min Rain = 0
KQU1 250908Z 16011KT 17/17 A2995 RMK A01 T01740171  RH  098%=      5-min Rain = 0
KQU1 250909Z 17011KT 17/17 A2995 RMK A01 T01740171  RH  098%=      5-min Rain = 0
KQU1 250910Z 17009KT 17/17 A2995 RMK A01 T01740171  RH  098%=      5-min Rain = 0
KQU1 250911Z 17010KT 17/17 A2995 RMK A01 T01740171  RH  098%=      5-min Rain = 0
KQU1 250912Z 16009KT 17/17 A2995 RMK A01 T01740172  RH  098%=      5-min Rain = 0
KQU1 250913Z 17010KT 17/17 A2995 RMK A01 T01740172  RH  098%=      5-min Rain = 0
KQU1 250914Z 16008KT 17/17 A2995 RMK A01 T01740172  RH  098%=      5-min Rain = 0
KQU1 250915Z 17008KT 17/17 A2995 RMK A01 T01740172  RH  098%=      5-min Rain = 0
KQU1 250916Z 17009KT 17/17 A2995 RMK A01 T01740172  RH  098%=      5-min Rain = 0
KQU1 250917Z 17010KT 17/17 A2995 RMK A01 T01740172  RH  099%=      5-min Rain = 0
KQU1 250918Z 17011KT 18/17 A2995 RMK A01 T01750172  RH  099%=      5-min Rain = 0
KQU1 250919Z 17009KT 18/17 A2995 RMK A01 T01750172  RH  099%=      5-min Rain = 0
KQU1 250920Z 17009KT 18/17 A2995 RMK A01 T01750173  RH  099%=      5-min Rain = 0
KQU1 250921Z 17010KT 18/17 A2995 RMK A01 T01750173  RH  099%=      5-min Rain = 0
KQU1 250922Z 17010KT 18/17 A2995 RMK A01 T01750173  RH  099%=      5-min Rain = 0
KQU1 250923Z 17009KT 18/17 A2995 RMK A01 T01750173  RH  099%=      5-min Rain = 0
KQU1 250924Z 17009KT 18/17 A2995 RMK A01 T01750173  RH  099%=      5-min Rain = 0
KQU1 250925Z 17009KT 18/17 A2995 RMK A01 T01750173  RH  099%=      5-min Rain = 0
KQU1 250926Z 17009KT 18/17 A2995 RMK A01 T01750173  RH  099%=      5-min Rain = 0
KQU1 250927Z 17008KT 18/17 A2995 RMK A01 T01750173  RH  099%=      5-min Rain = 0
KQU1 250928Z 17008KT 18/17 A2996 RMK A01 T01750173  RH  099%=      5-min Rain = 0
KQU1 250929Z 17007KT 18/17 A2996 RMK A01 T01760173  RH  099%=      5-min Rain = 0
KQU1 250930Z 17006KT 18/17 A2996 RMK A01 T01760173  RH  099%=      5-min Rain = 0
KQU1 250931Z 17007KT 18/17 A2996 RMK A01 T01760174  RH  099%=      5-min Rain = 0
KQU1 250932Z 17007KT 18/17 A2996 RMK A01 T01760174  RH  099%=      5-min Rain = 0
KQU1 250933Z 17006KT 18/17 A2996 RMK A01 T01760174  RH  099%=      5-min Rain = 0
KQU1 250934Z 16006KT 18/17 A2996 RMK A01 T01760174  RH  099%=      5-min Rain = 0
KQU1 250935Z 16008KT 18/17 A2996 RMK A01 T01760174  RH  099%=      5-min Rain = 0
KQU1 250936Z 17006KT 18/17 A2996 RMK A01 T01760174  RH  099%=      5-min Rain = 0
KQU1 250937Z 16005KT 18/17 A2995 RMK A01 T01760174  RH  099%=      5-min Rain = 0
KQU1 250938Z 15005KT 18/17 A2995 RMK A01 T01760174  RH  099%=      5-min Rain = 0
KQU1 250939Z 15005KT 18/17 A2995 RMK A01 T01760174  RH  099%=      5-min Rain = 0
KQU1 250940Z 15004KT 18/17 A2996 RMK A01 T01760174  RH  099%=      5-min Rain = 0
KQU1 250941Z 15004KT 18/17 A2996 RMK A01 T01760174  RH  099%=      5-min Rain = 0
KQU1 250942Z 15003KT 18/17 A2996 RMK A01 T01760174  RH  099%=      5-min Rain = 0
KQU1 250943Z 15004KT 18/17 A2996 RMK A01 T01760174  RH  099%=      5-min Rain = 0
KQU1 250944Z 15004KT 18/17 A2996 RMK A01 T01760174  RH  098%=      5-min Rain = 0
KQU1 250945Z 15003KT 18/17 A2996 RMK A01 T01760174  RH  098%=      5-min Rain = 0
KQU1 250946Z 14003KT 18/17 A2996 RMK A01 T01760174  RH  098%=      5-min Rain = 0
KQU1 250947Z 15003KT 18/17 A2996 RMK A01 T01760174  RH  098%=      5-min Rain = 0
KQU1 250948Z 17003KT 18/17 A2996 RMK A01 T01760174  RH  098%=      5-min Rain = 0
KQU1 250949Z 15003KT 18/17 A2996 RMK A01 T01770174  RH  098%=      5-min Rain = 0
KQU1 250950Z 13003KT 18/17 A2996 RMK A01 T01770174  RH  098%=      5-min Rain = 0
KQU1 250951Z 13003KT 18/17 A2996 RMK A01 T01770174  RH  098%=      5-min Rain = 0
KQU1 250952Z 14003KT 18/17 A2996 RMK A01 T01770174  RH  098%=      5-min Rain = 0
KQU1 250953Z 14003KT 18/17 A2996 RMK A01 T01770174  RH  098%=      5-min Rain = 0
KQU1 250954Z 15004KT 18/17 A2996 RMK A01 T01770174  RH  098%=      5-min Rain = 0
KQU1 250955Z 15004KT 18/17 A2996 RMK A01 T01770174  RH  098%=      5-min Rain = 0
KQU1 250956Z 14004KT 18/17 A2997 RMK A01 T01770174  RH  098%=      5-min Rain = 0
KQU1 250957Z 15004KT 18/17 A2996 RMK A01 T01770174  RH  098%=      5-min Rain = 0
KQU1 250958Z 14004KT 18/17 A2996 RMK A01 T01770174  RH  098%=      5-min Rain = 0
KQU1 250959Z 14004KT 18/17 A2996 RMK A01 T01770174  RH  098%=      5-min Rain = 0
KQU1 251000Z 14004KT 18/17 A2996 RMK A01 T01770174  RH  098%=      5-min Rain = 0
KQU1 251001Z 14004KT 18/17 A2996 RMK A01 T01770174  RH  098%=      5-min Rain = 0
KQU1 251002Z 13005KT 18/17 A2996 RMK A01 T01770174  RH  098%=      5-min Rain = 0
KQU1 251003Z 13005KT 18/17 A2996 RMK A01 T01770174  RH  098%=      5-min Rain = 0
KQU1 251004Z 13003KT 18/17 A2996 RMK A01 T01770174  RH  098%=      5-min Rain = 0
KQU1 251005Z 14004KT 18/17 A2996 RMK A01 T01770174  RH  098%=      5-min Rain = 0
KQU1 251006Z 13004KT 18/17 A2996 RMK A01 T01770174  RH  098%=      5-min Rain = 0
KQU1 251007Z 13004KT 18/17 A2996 RMK A01 T01770174  RH  098%=      5-min Rain = 0
KQU1 251008Z 13004KT 18/17 A2996 RMK A01 T01770174  RH  098%=      5-min Rain = 0
KQU1 251009Z 14004KT 18/17 A2996 RMK A01 T01770174  RH  098%=      5-min Rain = 0
KQU1 251010Z 12004KT 18/17 A2996 RMK A01 T01770174  RH  098%=      5-min Rain = 0
KQU1 251011Z 12004KT 18/18 A2996 RMK A01 T01770175  RH  098%=      5-min Rain = 0
KQU1 251012Z 12004KT 18/17 A2996 RMK A01 T01770174  RH  098%=      5-min Rain = 0
KQU1 251013Z 13004KT 18/17 A2996 RMK A01 T01770174  RH  098%=      5-min Rain = 0
KQU1 251014Z 13004KT 18/17 A2996 RMK A01 T01770174  RH  098%=      5-min Rain = 0
KQU1 251015Z 13004KT 18/17 A2996 RMK A01 T01770174  RH  098%=      5-min Rain = 0
KQU1 251016Z 13004KT 18/17 A2996 RMK A01 T01770174  RH  098%=      5-min Rain = 0
KQU1 251017Z 13003KT 18/17 A2996 RMK A01 T01770174  RH  098%=      5-min Rain = 0
KQU1 251018Z 13004KT 18/18 A2996 RMK A01 T01770175  RH  098%=      5-min Rain = 0
KQU1 251019Z 13005KT 18/18 A2997 RMK A01 T01770175  RH  098%=      5-min Rain = 0
KQU1 251020Z 13004KT 18/18 A2997 RMK A01 T01770175  RH  098%=      5-min Rain = 0
KQU1 251021Z 13004KT 18/18 A2997 RMK A01 T01770175  RH  098%=      5-min Rain = 0
KQU1 251022Z 13004KT 18/18 A2997 RMK A01 T01770175  RH  098%=      5-min Rain = 0
KQU1 251023Z 13004KT 18/18 A2997 RMK A01 T01770175  RH  098%=      5-min Rain = 0
KQU1 251024Z 13004KT 18/18 A2997 RMK A01 T01770175  RH  098%=      5-min Rain = 0
KQU1 251025Z 13003KT 18/18 A2997 RMK A01 T01770175  RH  098%=      5-min Rain = 0
KQU1 251026Z 13003KT 18/18 A2997 RMK A01 T01770175  RH  098%=      5-min Rain = 0
KQU1 251027Z 13003KT 18/18 A2997 RMK A01 T01770175  RH  098%=      5-min Rain = 0
KQU1 251028Z 13003KT 18/18 A2997 RMK A01 T01770175  RH  098%=      5-min Rain = 0
KQU1 251029Z 13003KT 18/18 A2997 RMK A01 T01770175  RH  098%=      5-min Rain = 0
KQU1 251030Z 13002KT 18/18 A2997 RMK A01 T01770175  RH  098%=      5-min Rain = 0
KQU1 251031Z 14003KT 18/18 A2997 RMK A01 T01770175  RH  098%=      5-min Rain = 0
KQU1 251032Z 14003KT 18/18 A2997 RMK A01 T01770175  RH  098%=      5-min Rain = 0
KQU1 251033Z 14003KT 18/18 A2997 RMK A01 T01770175  RH  098%=      5-min Rain = 0
KQU1 251034Z 14002KT 18/18 A2997 RMK A01 T01770175  RH  098%=      5-min Rain = 0
KQU1 251035Z 14003KT 18/18 A2997 RMK A01 T01780175  RH  098%=      5-min Rain = 0
KQU1 251036Z 13003KT 18/18 A2997 RMK A01 T01780175  RH  098%=      5-min Rain = 0
KQU1 251037Z 14002KT 18/18 A2997 RMK A01 T01780175  RH  098%=      5-min Rain = 0
KQU1 251038Z 14002KT 18/18 A2997 RMK A01 T01780176  RH  098%=      5-min Rain = 0
KQU1 251039Z 13002KT 18/18 A2997 RMK A01 T01780176  RH  098%=      5-min Rain = 0
KQU1 251040Z 12002KT 18/18 A2997 RMK A01 T01780176  RH  098%=      5-min Rain = 0
KQU1 251041Z 13002KT 18/18 A2997 RMK A01 T01780176  RH  098%=      5-min Rain = 0
KQU1 251042Z 12002KT 18/18 A2997 RMK A01 T01780176  RH  098%=      5-min Rain = 0
KQU1 251043Z 10001KT 18/18 A2997 RMK A01 T01780176  RH  098%=      5-min Rain = 0
KQU1 251044Z 12001KT 18/18 A2997 RMK A01 T01780176  RH  098%=      5-min Rain = 0
KQU1 251045Z 12001KT 18/18 A2997 RMK A01 T01780176  RH  098%=      5-min Rain = 0
KQU1 251046Z 12001KT 18/18 A2997 RMK A01 T01780176  RH  098%=      5-min Rain = 0
KQU1 251047Z 13001KT 18/18 A2998 RMK A01 T01780176  RH  098%=      5-min Rain = 0
KQU1 251048Z 13001KT 18/18 A2998 RMK A01 T01780176  RH  098%=      5-min Rain = 0
KQU1 251049Z 13001KT 18/18 A2998 RMK A01 T01780176  RH  098%=      5-min Rain = 0
KQU1 251050Z 12002KT 18/18 A2998 RMK A01 T01780176  RH  098%=      5-min Rain = 0
KQU1 251051Z 11003KT 18/18 A2998 RMK A01 T01780176  RH  098%=      5-min Rain = 0
KQU1 251052Z 11002KT 18/18 A2998 RMK A01 T01780176  RH  098%=      5-min Rain = 0
KQU1 251053Z 10002KT 18/18 A2998 RMK A01 T01780176  RH  098%=      5-min Rain = 0
KQU1 251054Z 10002KT 18/18 A2998 RMK A01 T01780176  RH  098%=      5-min Rain = 0
KQU1 251055Z 12003KT 18/18 A2998 RMK A01 T01780176  RH  098%=      5-min Rain = 0
KQU1 251056Z 11002KT 18/18 A2998 RMK A01 T01780176  RH  098%=      5-min Rain = 0
KQU1 251057Z 11002KT 18/18 A2998 RMK A01 T01790176  RH  098%=      5-min Rain = 0
KQU1 251058Z 11001KT 18/18 A2998 RMK A01 T01790176  RH  098%=      5-min Rain = 0
KQU1 251059Z 11002KT 18/18 A2998 RMK A01 T01790176  RH  098%=      5-min Rain = 0
KQU1 251100Z 11002KT 18/18 A2998 RMK A01 T01790176  RH  098%=      5-min Rain = 0
KQU1 251101Z 10001KT 18/18 A2998 RMK A01 T01790176  RH  098%=      5-min Rain = 0
KQU1 251102Z 09002KT 18/18 A2998 RMK A01 T01790176  RH  098%=      5-min Rain = 0
KQU1 251103Z 09001KT 18/18 A2998 RMK A01 T01790176  RH  098%=      5-min Rain = 0
KQU1 251104Z 09001KT 18/18 A2998 RMK A01 T01790176  RH  098%=      5-min Rain = 0
KQU1 251105Z 09001KT 18/18 A2998 RMK A01 T01790176  RH  098%=      5-min Rain = 0
KQU1 251106Z 10001KT 18/18 A2998 RMK A01 T01790176  RH  098%=      5-min Rain = 0
KQU1 251107Z 07001KT 18/18 A2998 RMK A01 T01790177  RH  098%=      5-min Rain = 0
KQU1 251108Z 08002KT 18/18 A2998 RMK A01 T01790177  RH  098%=      5-min Rain = 0
KQU1 251109Z 09001KT 18/18 A2998 RMK A01 T01790177  RH  098%=      5-min Rain = 0
KQU1 251110Z 08001KT 18/18 A2998 RMK A01 T01790177  RH  098%=      5-min Rain = 0
KQU1 251111Z 08001KT 18/18 A2998 RMK A01 T01790177  RH  098%=      5-min Rain = 0
KQU1 251112Z 09002KT 18/18 A2998 RMK A01 T01790177  RH  098%=      5-min Rain = 0
KQU1 251113Z 08001KT 18/18 A2998 RMK A01 T01790177  RH  098%=      5-min Rain = 0
KQU1 251114Z 09001KT 18/18 A2998 RMK A01 T01790177  RH  098%=      5-min Rain = 0
KQU1 251115Z 08002KT 18/18 A2998 RMK A01 T01790177  RH  098%=      5-min Rain = 0
KQU1 251116Z 09002KT 18/18 A2998 RMK A01 T01790177  RH  098%=      5-min Rain = 0
KQU1 251117Z 08002KT 18/18 A2998 RMK A01 T01790177  RH  098%=      5-min Rain = 0
KQU1 251118Z 09002KT 18/18 A2998 RMK A01 T01790177  RH  098%=      5-min Rain = 0
KQU1 251119Z 11002KT 18/18 A2998 RMK A01 T01790177  RH  098%=      5-min Rain = 0
KQU1 251120Z 10003KT 18/18 A2998 RMK A01 T01790177  RH  098%=      5-min Rain = 0
KQU1 251121Z 11003KT 18/18 A2998 RMK A01 T01790177  RH  098%=      5-min Rain = 0
KQU1 251122Z 12003KT 18/18 A2998 RMK A01 T01790177  RH  098%=      5-min Rain = 0
KQU1 251123Z 13003KT 18/18 A2998 RMK A01 T01790177  RH  098%=      5-min Rain = 0
KQU1 251124Z 12004KT 18/18 A2998 RMK A01 T01790177  RH  098%=      5-min Rain = 0
KQU1 251125Z 12003KT 18/18 A2998 RMK A01 T01790177  RH  098%=      5-min Rain = 0
KQU1 251126Z 12003KT 18/18 A2998 RMK A01 T01790177  RH  098%=      5-min Rain = 0
KQU1 251127Z 13004KT 18/18 A2998 RMK A01 T01790177  RH  098%=      5-min Rain = 0
KQU1 251128Z 13003KT 18/18 A2998 RMK A01 T01790177  RH  098%=      5-min Rain = 0
KQU1 251129Z 14002KT 18/18 A2998 RMK A01 T01790177  RH  098%=      5-min Rain = 0
KQU1 251130Z 14003KT 18/18 A2998 RMK A01 T01790177  RH  098%=      5-min Rain = 0
KQU1 251131Z 13002KT 18/18 A2998 RMK A01 T01790177  RH  098%=      5-min Rain = 0
KQU1 251132Z 12003KT 18/18 A2998 RMK A01 T01790177  RH  098%=      5-min Rain = 0
KQU1 251133Z 12003KT 18/18 A2998 RMK A01 T01790177  RH  098%=      5-min Rain = 0
KQU1 251134Z 13003KT 18/18 A2998 RMK A01 T01790177  RH  098%=      5-min Rain = 0
KQU1 251135Z 12004KT 18/18 A2998 RMK A01 T01790177  RH  098%=      5-min Rain = 0
KQU1 251136Z 13004KT 18/18 A2998 RMK A01 T01790177  RH  098%=      5-min Rain = 0
KQU1 251137Z 13004KT 18/18 A2998 RMK A01 T01790177  RH  098%=      5-min Rain = 0
KQU1 251138Z 13004KT 18/18 A2998 RMK A01 T01790177  RH  098%=      5-min Rain = 0
KQU1 251139Z 14004KT 18/18 A2998 RMK A01 T01800177  RH  098%=      5-min Rain = 0
KQU1 251140Z 14004KT 18/18 A2998 RMK A01 T01800177  RH  098%=      5-min Rain = 0
KQU1 251141Z 14004KT 18/18 A2998 RMK A01 T01800177  RH  098%=      5-min Rain = 0
KQU1 251142Z 14004KT 18/18 A2998 RMK A01 T01800177  RH  098%=      5-min Rain = 0
KQU1 251143Z 14004KT 18/18 A2998 RMK A01 T01800177  RH  098%=      5-min Rain = 0
KQU1 251144Z 14004KT 18/18 A2998 RMK A01 T01800177  RH  098%=      5-min Rain = 0
KQU1 251145Z 14004KT 18/18 A2998 RMK A01 T01800177  RH  098%=      5-min Rain = 0
KQU1 251146Z 14004KT 18/18 A2998 RMK A01 T01800177  RH  098%=      5-min Rain = 0
KQU1 251147Z 14004KT 18/18 A2998 RMK A01 T01800177  RH  098%=      5-min Rain = 0
KQU1 251148Z 13004KT 18/18 A2998 RMK A01 T01800177  RH  098%=      5-min Rain = 0
KQU1 251149Z 14004KT 18/18 A2998 RMK A01 T01800177  RH  098%=      5-min Rain = 0
KQU1 251150Z 14004KT 18/18 A2998 RMK A01 T01800177  RH  099%=      5-min Rain = 0
KQU1 251151Z 15004KT 18/18 A2998 RMK A01 T01800177  RH  099%=      5-min Rain = 0
KQU1 251152Z 14004KT 18/18 A2998 RMK A01 T01800177  RH  099%=      5-min Rain = 0
KQU1 251153Z 14003KT 18/18 A2998 RMK A01 T01800177  RH  099%=      5-min Rain = 0
KQU1 251154Z 14004KT 18/18 A2998 RMK A01 T01800178  RH  099%=      5-min Rain = 0
KQU1 251155Z 14004KT 18/18 A2999 RMK A01 T01800178  RH  099%=      5-min Rain = 0
KQU1 251156Z 14003KT 18/18 A2999 RMK A01 T01800178  RH  099%=      5-min Rain = 0
KQU1 251157Z 14005KT 18/18 A2999 RMK A01 T01800178  RH  099%=      5-min Rain = 0
KQU1 251158Z 14004KT 18/18 A2999 RMK A01 T01800178  RH  099%=      5-min Rain = 0
KQU1 251159Z 14004KT 18/18 A2999 RMK A01 T01800178  RH  099%=      5-min Rain = 0
KQU1 251200Z 14003KT 18/18 A2999 RMK A01 T01800178  RH  099%=      5-min Rain = 0
KQU1 251201Z 14003KT 18/18 A2999 RMK A01 T01800178  RH  099%=      5-min Rain = 0
KQU1 251202Z 14004KT 18/18 A2999 RMK A01 T01800178  RH  099%=      5-min Rain = 0
KQU1 251203Z 13003KT 18/18 A2999 RMK A01 T01800178  RH  099%=      5-min Rain = 0
KQU1 251204Z 14003KT 18/18 A2999 RMK A01 T01800178  RH  099%=      5-min Rain = 0
KQU1 251205Z 14004KT 18/18 A2999 RMK A01 T01800178  RH  099%=      5-min Rain = 0
KQU1 251206Z 14005KT 18/18 A2999 RMK A01 T01800178  RH  099%=      5-min Rain = 0
KQU1 251207Z 13004KT 18/18 A2999 RMK A01 T01800178  RH  099%=      5-min Rain = 0
KQU1 251208Z 14004KT 18/18 A2999 RMK A01 T01800178  RH  099%=      5-min Rain = 0
KQU1 251209Z 13004KT 18/18 A2999 RMK A01 T01810178  RH  099%=      5-min Rain = 0
KQU1 251210Z 14004KT 18/18 A2999 RMK A01 T01810178  RH  099%=      5-min Rain = 0
KQU1 251211Z 14005KT 18/18 A2999 RMK A01 T01810179  RH  099%=      5-min Rain = 0
KQU1 251212Z 14005KT 18/18 A2999 RMK A01 T01810179  RH  099%=      5-min Rain = 0
KQU1 251213Z 14006KT 18/18 A2999 RMK A01 T01810179  RH  099%=      5-min Rain = 0
KQU1 251214Z 15005KT 18/18 A2999 RMK A01 T01810179  RH  099%=      5-min Rain = 0
KQU1 251215Z 15004KT 18/18 A2999 RMK A01 T01810179  RH  099%=      5-min Rain = 0
KQU1 251216Z 14004KT 18/18 A2999 RMK A01 T01810179  RH  099%=      5-min Rain = 0
KQU1 251217Z 14005KT 18/18 A2999 RMK A01 T01810179  RH  099%=      5-min Rain = 0
KQU1 251218Z 14004KT 18/18 A2999 RMK A01 T01810179  RH  099%=      5-min Rain = 0
KQU1 251219Z 14006KT 18/18 A2999 RMK A01 T01810179  RH  099%=      5-min Rain = 0
KQU1 251220Z 14005KT 18/18 A2999 RMK A01 T01820179  RH  099%=      5-min Rain = 0
KQU1 251221Z 14004KT 18/18 A2999 RMK A01 T01820179  RH  099%=      5-min Rain = 0
KQU1 251222Z 15004KT 18/18 A2999 RMK A01 T01820179  RH  099%=      5-min Rain = 0
KQU1 251223Z 15004KT 18/18 A2999 RMK A01 T01820180  RH  099%=      5-min Rain = 0
KQU1 251224Z 14004KT 18/18 A2999 RMK A01 T01820180  RH  099%=      5-min Rain = 0
KQU1 251225Z 14004KT 18/18 A2999 RMK A01 T01820180  RH  099%=      5-min Rain = 0
KQU1 251226Z 13004KT 18/18 A2999 RMK A01 T01820180  RH  099%=      5-min Rain = 0
KQU1 251227Z 13003KT 18/18 A30 RMK A01 T01820180  RH  099%=      5-min Rain = 0
KQU1 251228Z 13004KT 18/18 A30 RMK A01 T01820180  RH  099%=      5-min Rain = 0
KQU1 251229Z 14004KT 18/18 A30 RMK A01 T01820180  RH  099%=      5-min Rain = 0
KQU1 251230Z 13004KT 18/18 A30 RMK A01 T01820180  RH  099%=      5-min Rain = 0
KQU1 251231Z 14004KT 18/18 A30 RMK A01 T01820180  RH  099%=      5-min Rain = 0
KQU1 251232Z 13004KT 18/18 A30 RMK A01 T01820180  RH  099%=      5-min Rain = 0
KQU1 251233Z 13004KT 18/18 A30 RMK A01 T01820180  RH  099%=      5-min Rain = 0
KQU1 251234Z 13003KT 18/18 A30 RMK A01 T01820180  RH  099%=      5-min Rain = 0
KQU1 251235Z 13003KT 18/18 A30 RMK A01 T01830180  RH  099%=      5-min Rain = 0
KQU1 251236Z 13003KT 18/18 A30 RMK A01 T01830181  RH  099%=      5-min Rain = 0
KQU1 251237Z 13004KT 18/18 A30 RMK A01 T01830181  RH  099%=      5-min Rain = 0
KQU1 251238Z 13004KT 18/18 A30 RMK A01 T01830181  RH  099%=      5-min Rain = 0
KQU1 251239Z 13003KT 18/18 A30 RMK A01 T01830181  RH  099%=      5-min Rain = 0
KQU1 251240Z 13003KT 18/18 A30 RMK A01 T01830181  RH  099%=      5-min Rain = 0
KQU1 251241Z 12003KT 18/18 A30 RMK A01 T01830181  RH  099%=      5-min Rain = 0
KQU1 251242Z 13004KT 18/18 A30 RMK A01 T01830181  RH  099%=      5-min Rain = 0
KQU1 251243Z 13005KT 18/18 A30 RMK A01 T01830181  RH  099%=      5-min Rain = 0
KQU1 251244Z 13004KT 18/18 A30 RMK A01 T01830181  RH  099%=      5-min Rain = 0
KQU1 251245Z 13004KT 18/18 A30 RMK A01 T01840181  RH  099%=      5-min Rain = 0
KQU1 251246Z 13003KT 18/18 A30 RMK A01 T01840182  RH  099%=      5-min Rain = 0
KQU1 251247Z 14005KT 18/18 A30 RMK A01 T01840182  RH  099%=      5-min Rain = 0
KQU1 251248Z 13004KT 18/18 A3001 RMK A01 T01840182  RH  099%=      5-min Rain = 0
KQU1 251249Z 13004KT 18/18 A3001 RMK A01 T01840182  RH  099%=      5-min Rain = 0
KQU1 251250Z 13004KT 18/18 A3001 RMK A01 T01840182  RH  099%=      5-min Rain = 0
KQU1 251251Z 13004KT 18/18 A3001 RMK A01 T01840182  RH  099%=      5-min Rain = 0
KQU1 251252Z 14004KT 18/18 A3001 RMK A01 T01840182  RH  099%=      5-min Rain = 0
KQU1 251253Z 14005KT 18/18 A3001 RMK A01 T01840182  RH  099%=      5-min Rain = 0
KQU1 251254Z 14005KT 18/18 A3001 RMK A01 T01840182  RH  099%=      5-min Rain = 0
KQU1 251255Z 13006KT 18/18 A3001 RMK A01 T01840182  RH  099%=      5-min Rain = 0
KQU1 251256Z 14005KT 18/18 A3001 RMK A01 T01840182  RH  099%=      5-min Rain = 0
KQU1 251257Z 13005KT 18/18 A3001 RMK A01 T01840182  RH  099%=      5-min Rain = 0
KQU1 251258Z 13005KT 18/18 A3001 RMK A01 T01840182  RH  099%=      5-min Rain = 0
KQU1 251259Z 13005KT 18/18 A3001 RMK A01 T01840182  RH  099%=      5-min Rain = 0
KQU1 251300Z 14005KT 19/18 A3001 RMK A01 T01850182  RH  099%=      5-min Rain = 0
KQU1 251301Z 13006KT 19/18 A3001 RMK A01 T01850182  RH  099%=      5-min Rain = 0
KQU1 251302Z 12006KT 19/18 A3001 RMK A01 T01850182  RH  099%=      5-min Rain = 0
KQU1 251303Z 13005KT 19/18 A3001 RMK A01 T01850182  RH  099%=      5-min Rain = 0
KQU1 251304Z 14006KT 19/18 A3001 RMK A01 T01850183  RH  099%=      5-min Rain = 0
KQU1 251305Z 14005KT 19/18 A3001 RMK A01 T01850183  RH  099%=      5-min Rain = 0
KQU1 251306Z 13005KT 19/18 A3001 RMK A01 T01850183  RH  099%=      5-min Rain = 0
KQU1 251307Z 13005KT 19/18 A3001 RMK A01 T01850183  RH  099%=      5-min Rain = 0
KQU1 251308Z 13006KT 19/18 A3001 RMK A01 T01850183  RH  099%=      5-min Rain = 0
KQU1 251309Z 13006KT 19/18 A3001 RMK A01 T01850183  RH  099%=      5-min Rain = 0
KQU1 251310Z 13005KT 19/18 A3001 RMK A01 T01850183  RH  099%=      5-min Rain = 0
KQU1 251311Z 13005KT 19/18 A3001 RMK A01 T01860183  RH  099%=      5-min Rain = 0
KQU1 251312Z 13006KT 19/18 A3001 RMK A01 T01860183  RH  099%=      5-min Rain = 0
KQU1 251313Z 13005KT 19/18 A3001 RMK A01 T01860183  RH  099%=      5-min Rain = 0
KQU1 251314Z 13005KT 19/18 A3001 RMK A01 T01860183  RH  099%=      5-min Rain = 0
KQU1 251315Z 14005KT 19/18 A3001 RMK A01 T01860183  RH  099%=      5-min Rain = 0
KQU1 251316Z 13006KT 19/18 A3001 RMK A01 T01860184  RH  099%=      5-min Rain = 0
KQU1 251317Z 13006KT 19/18 A3001 RMK A01 T01860184  RH  099%=      5-min Rain = 0
KQU1 251318Z 14006KT 19/18 A3001 RMK A01 T01860184  RH  099%=      5-min Rain = 0
KQU1 251319Z 14005KT 19/18 A3001 RMK A01 T01860184  RH  099%=      5-min Rain = 0
KQU1 251320Z 14005KT 19/18 A3001 RMK A01 T01860184  RH  099%=      5-min Rain = 0
KQU1 251321Z 13006KT 19/18 A3001 RMK A01 T01860184  RH  099%=      5-min Rain = 0
KQU1 251322Z 13006KT 19/18 A3001 RMK A01 T01870184  RH  099%=      5-min Rain = 0
KQU1 251323Z 14005KT 19/18 A3001 RMK A01 T01870184  RH  099%=      5-min Rain = 0
KQU1 251324Z 14004KT 19/19 A3001 RMK A01 T01870185  RH  099%=      5-min Rain = 0
KQU1 251325Z 14005KT 19/19 A3001 RMK A01 T01870185  RH  099%=      5-min Rain = 0
KQU1 251326Z 14006KT 19/19 A3001 RMK A01 T01870185  RH  099%=      5-min Rain = 0
KQU1 251327Z 14005KT 19/19 A3001 RMK A01 T01870185  RH  099%=      5-min Rain = 0
KQU1 251328Z 14005KT 19/19 A3001 RMK A01 T01880185  RH  099%=      5-min Rain = 0
KQU1 251329Z 14005KT 19/19 A3001 RMK A01 T01880185  RH  099%=      5-min Rain = 0
KQU1 251330Z 14005KT 19/19 A3001 RMK A01 T01880186  RH  099%=      5-min Rain = 0
KQU1 251331Z 13006KT 19/19 A3001 RMK A01 T01880186  RH  099%=      5-min Rain = 0
KQU1 251332Z 13006KT 19/19 A3001 RMK A01 T01880186  RH  099%=      5-min Rain = 0
KQU1 251333Z 13004KT 19/19 A3001 RMK A01 T01880186  RH  098%=      5-min Rain = 0
KQU1 251334Z 14005KT 19/19 A3001 RMK A01 T01880186  RH  098%=      5-min Rain = 0
KQU1 251335Z 15005KT 19/19 A3001 RMK A01 T01880186  RH  098%=      5-min Rain = 0
KQU1 251336Z 15004KT 19/19 A3001 RMK A01 T01880186  RH  098%=      5-min Rain = 0
KQU1 251337Z 14005KT 19/19 A3001 RMK A01 T01890186  RH  098%=      5-min Rain = 0
KQU1 251338Z 14005KT 19/19 A3001 RMK A01 T01890186  RH  098%=      5-min Rain = 0
KQU1 251339Z 14004KT 19/19 A3001 RMK A01 T01890186  RH  098%=      5-min Rain = 0
KQU1 251340Z 15003KT 19/19 A3001 RMK A01 T01890186  RH  098%=      5-min Rain = 0
KQU1 251341Z 15005KT 19/19 A3001 RMK A01 T01890186  RH  098%=      5-min Rain = 0
KQU1 251342Z 15005KT 19/19 A3001 RMK A01 T01890186  RH  098%=      5-min Rain = 0
KQU1 251343Z 15005KT 19/19 A3001 RMK A01 T01890186  RH  098%=      5-min Rain = 0
KQU1 251344Z 15004KT 19/19 A3002 RMK A01 T01890186  RH  098%=      5-min Rain = 0
KQU1 251345Z 16005KT 19/19 A3002 RMK A01 T01890186  RH  098%=      5-min Rain = 0
KQU1 251346Z 16004KT 19/19 A3002 RMK A01 T01890186  RH  098%=      5-min Rain = 0
KQU1 251347Z 16004KT 19/19 A3002 RMK A01 T01890186  RH  098%=      5-min Rain = 0
KQU1 251348Z 15004KT 19/19 A3002 RMK A01 T01890186  RH  098%=      5-min Rain = 0
KQU1 251349Z 16004KT 19/19 A3002 RMK A01 T01890186  RH  098%=      5-min Rain = 0
KQU1 251350Z 15004KT 19/19 A3002 RMK A01 T01890187  RH  098%=      5-min Rain = 0
KQU1 251351Z 15004KT 19/19 A3002 RMK A01 T01890187  RH  098%=      5-min Rain = 0
KQU1 251352Z 15004KT 19/19 A3002 RMK A01 T01890187  RH  098%=      5-min Rain = 0
KQU1 251353Z 15005KT 19/19 A3002 RMK A01 T01900187  RH  098%=      5-min Rain = 0
KQU1 251354Z 16005KT 19/19 A3002 RMK A01 T01900187  RH  098%=      5-min Rain = 0
KQU1 251355Z 15005KT 19/19 A3002 RMK A01 T01900187  RH  098%=      5-min Rain = 0
KQU1 251356Z 14005KT 19/19 A3002 RMK A01 T01900187  RH  098%=      5-min Rain = 0
KQU1 251357Z 15006KT 19/19 A3002 RMK A01 T01900188  RH  098%=      5-min Rain = 0
KQU1 251358Z 15006KT 19/19 A3002 RMK A01 T01900188  RH  098%=      5-min Rain = 0
KQU1 251359Z 15005KT 19/19 A3002 RMK A01 T01900188  RH  098%=      5-min Rain = 0
KQU1 251400Z 15004KT 19/19 A3002 RMK A01 T01910188  RH  098%=      5-min Rain = 0
KQU1 251401Z 14005KT 19/19 A3002 RMK A01 T01910188  RH  098%=      5-min Rain = 0
KQU1 251402Z 14005KT 19/19 A3002 RMK A01 T01910188  RH  098%=      5-min Rain = 0
KQU1 251403Z 15006KT 19/19 A3002 RMK A01 T01910188  RH  098%=      5-min Rain = 0
KQU1 251404Z 15005KT 19/19 A3002 RMK A01 T01910188  RH  098%=      5-min Rain = 0
KQU1 251405Z 15005KT 19/19 A3002 RMK A01 T01910188  RH  098%=      5-min Rain = 0
KQU1 251406Z 15006KT 19/19 A3002 RMK A01 T01920189  RH  098%=      5-min Rain = 0
KQU1 251407Z 15005KT 19/19 A3002 RMK A01 T01920189  RH  098%=      5-min Rain = 0
KQU1 251408Z 15006KT 19/19 A3002 RMK A01 T01920189  RH  098%=      5-min Rain = 0
KQU1 251409Z 15006KT 19/19 A3002 RMK A01 T01920189  RH  098%=      5-min Rain = 0
KQU1 251410Z 14006KT 19/19 A3002 RMK A01 T01920189  RH  098%=      5-min Rain = 0
KQU1 251411Z 16006KT 19/19 A3002 RMK A01 T01920189  RH  098%=      5-min Rain = 0
KQU1 251412Z 16006KT 19/19 A3002 RMK A01 T01920189  RH  098%=      5-min Rain = 0
KQU1 251413Z 17006KT 19/19 A3002 RMK A01 T01920189  RH  098%=      5-min Rain = 0
KQU1 251414Z 16006KT 19/19 A3002 RMK A01 T01930190  RH  098%=      5-min Rain = 0
KQU1 251415Z 15005KT 19/19 A3002 RMK A01 T01940190  RH  098%=      5-min Rain = 0
KQU1 251416Z 15006KT 19/19 A3002 RMK A01 T01930190  RH  098%=      5-min Rain = 0
KQU1 251417Z 15006KT 19/19 A3002 RMK A01 T01940190  RH  098%=      5-min Rain = 0
KQU1 251418Z 16007KT 19/19 A3002 RMK A01 T01940190  RH  098%=      5-min Rain = 0
KQU1 251419Z 16006KT 19/19 A3002 RMK A01 T01930189  RH  097%=      5-min Rain = 0
KQU1 251420Z 16006KT 19/19 A3002 RMK A01 T01940190  RH  098%=      5-min Rain = 0
KQU1 251421Z 16006KT 19/19 A3002 RMK A01 T01940190  RH  098%=      5-min Rain = 0
KQU1 251422Z 16006KT 19/19 A3002 RMK A01 T01940190  RH  097%=      5-min Rain = 0
KQU1 251423Z 16005KT 19/19 A3002 RMK A01 T01940190  RH  097%=      5-min Rain = 0
KQU1 251424Z 16005KT 19/19 A3002 RMK A01 T01940190  RH  098%=      5-min Rain = 0
KQU1 251425Z 16005KT 19/19 A3002 RMK A01 T01940190  RH  098%=      5-min Rain = 0
KQU1 251426Z 15005KT 20/19 A3002 RMK A01 T01950191  RH  098%=      5-min Rain = 0
KQU1 251427Z 16007KT 20/19 A3002 RMK A01 T01950191  RH  098%=      5-min Rain = 0
KQU1 251428Z 16006KT 20/19 A3002 RMK A01 T01950191  RH  097%=      5-min Rain = 0
KQU1 251429Z 16007KT 20/19 A3002 RMK A01 T01950190  RH  097%=      5-min Rain = 0
KQU1 251430Z 16007KT 20/19 A3002 RMK A01 T01950190  RH  097%=      5-min Rain = 0
KQU1 251431Z 16007KT 20/19 A3002 RMK A01 T01950191  RH  097%=      5-min Rain = 0
KQU1 251432Z 15007KT 20/19 A3002 RMK A01 T01950191  RH  097%=      5-min Rain = 0
KQU1 251433Z 15007KT 20/19 A3002 RMK A01 T01950191  RH  097%=      5-min Rain = 0
KQU1 251434Z 15006KT 20/19 A3002 RMK A01 T01960191  RH  097%=      5-min Rain = 0
KQU1 251435Z 15006KT 20/19 A3002 RMK A01 T01960192  RH  097%=      5-min Rain = 0
KQU1 251436Z 15006KT 20/19 A3002 RMK A01 T01960192  RH  097%=      5-min Rain = 0
KQU1 251437Z 15005KT 20/19 A3002 RMK A01 T01970192  RH  097%=      5-min Rain = 0
KQU1 251438Z 16006KT 20/19 A3002 RMK A01 T01970193  RH  097%=      5-min Rain = 0
KQU1 251439Z 17006KT 20/19 A3002 RMK A01 T01980193  RH  097%=      5-min Rain = 0
KQU1 251440Z 16006KT 20/19 A3002 RMK A01 T01980192  RH  097%=      5-min Rain = 0
KQU1 251441Z 15007KT 20/19 A3002 RMK A01 T01970192  RH  097%=      5-min Rain = 0
KQU1 251442Z 16006KT 20/19 A3002 RMK A01 T01970192  RH  097%=      5-min Rain = 0
KQU1 251443Z 15006KT 20/19 A3002 RMK A01 T01970192  RH  097%=      5-min Rain = 0
KQU1 251444Z 15005KT 20/19 A3002 RMK A01 T01970192  RH  097%=      5-min Rain = 0
KQU1 251445Z 16005KT 20/19 A3002 RMK A01 T01970192  RH  097%=      5-min Rain = 0
KQU1 251446Z 15006KT 20/19 A3002 RMK A01 T01980193  RH  097%=      5-min Rain = 0
KQU1 251447Z 16008KT 20/19 A3002 RMK A01 T01980192  RH  097%=      5-min Rain = 0
KQU1 251448Z 15008KT 20/19 A3002 RMK A01 T01980192  RH  096%=      5-min Rain = 0
KQU1 251449Z 16007KT 20/19 A3002 RMK A01 T01980192  RH  096%=      5-min Rain = 0
KQU1 251450Z 16007KT 20/19 A3002 RMK A01 T01980193  RH  096%=      5-min Rain = 0
KQU1 251451Z 16008KT 20/19 A3002 RMK A01 T01990193  RH  096%=      5-min Rain = 0
KQU1 251452Z 16007KT 20/19 A3002 RMK A01 T01990193  RH  096%=      5-min Rain = 0
KQU1 251453Z 17006KT 20/19 A3002 RMK A01 T02000194  RH  096%=      5-min Rain = 0
KQU1 251454Z 18008KT 20/19 A3002 RMK A01 T02000194  RH  096%=      5-min Rain = 0
KQU1 251455Z 17008KT 20/19 A3002 RMK A01 T02000193  RH  096%=      5-min Rain = 0
KQU1 251456Z 17008KT 20/19 A3002 RMK A01 T02000194  RH  096%=      5-min Rain = 0
KQU1 251457Z 17007KT 20/19 A3002 RMK A01 T02010194  RH  096%=      5-min Rain = 0
KQU1 251458Z 17008KT 20/19 A3002 RMK A01 T02010194  RH  095%=      5-min Rain = 0
KQU1 251459Z 17009KT 20/19 A3002 RMK A01 T02010193  RH  095%=      5-min Rain = 0
KQU1 251500Z 17008KT 20/19 A3002 RMK A01 T02010193  RH  095%=      5-min Rain = 0
KQU1 251501Z 16008KT 20/19 A3002 RMK A01 T02010194  RH  095%=      5-min Rain = 0
KQU1 251502Z 15007KT 20/19 A3002 RMK A01 T02020194  RH  095%=      5-min Rain = 0
KQU1 251503Z 15008KT 20/19 A3002 RMK A01 T02020194  RH  095%=      5-min Rain = 0
KQU1 251504Z 16007KT 20/19 A3003 RMK A01 T02020193  RH  095%=      5-min Rain = 0
KQU1 251505Z 15006KT 20/19 A3003 RMK A01 T02020194  RH  095%=      5-min Rain = 0
KQU1 251506Z 17006KT 20/19 A3003 RMK A01 T02020194  RH  095%=      5-min Rain = 0
KQU1 251507Z 17007KT 20/19 A3003 RMK A01 T02020193  RH  095%=      5-min Rain = 0
KQU1 251508Z 16006KT 20/19 A3003 RMK A01 T02020193  RH  095%=      5-min Rain = 0
KQU1 251509Z 16006KT 20/19 A3003 RMK A01 T02020194  RH  095%=      5-min Rain = 0
KQU1 251510Z 16005KT 20/19 A3003 RMK A01 T02020194  RH  095%=      5-min Rain = 0
KQU1 251511Z 16005KT 20/19 A3003 RMK A01 T02020194  RH  095%=      5-min Rain = 0
KQU1 251512Z 16006KT 20/19 A3003 RMK A01 T02020194  RH  095%=      5-min Rain = 0
KQU1 251513Z 16005KT 20/19 A3003 RMK A01 T02020194  RH  095%=      5-min Rain = 0
KQU1 251514Z 17005KT 20/19 A3002 RMK A01 T02020194  RH  095%=      5-min Rain = 0
KQU1 251515Z 17005KT 20/20 A3002 RMK A01 T02020195  RH  095%=      5-min Rain = 0
KQU1 251516Z 17006KT 20/19 A3002 RMK A01 T02020194  RH  095%=      5-min Rain = 0
KQU1 251517Z 17004KT 20/19 A3002 RMK A01 T02020194  RH  095%=      5-min Rain = 0
KQU1 251518Z 17005KT 20/20 A3002 RMK A01 T02030195  RH  095%=      5-min Rain = 0
KQU1 251519Z 17007KT 20/19 A3002 RMK A01 T02030194  RH  095%=      5-min Rain = 0
KQU1 251520Z 17006KT 20/19 A3002 RMK A01 T02030194  RH  095%=      5-min Rain = 0
KQU1 251521Z 17005KT 20/20 A3002 RMK A01 T02030195  RH  095%=      5-min Rain = 0
KQU1 251522Z 18004KT 20/20 A3002 RMK A01 T02040196  RH  095%=      5-min Rain = 0
KQU1 251523Z 18005KT 20/20 A3002 RMK A01 T02040195  RH  095%=      5-min Rain = 0
KQU1 251524Z 17005KT 20/20 A3002 RMK A01 T02040195  RH  095%=      5-min Rain = 0
KQU1 251525Z 17005KT 20/20 A3002 RMK A01 T02040196  RH  095%=      5-min Rain = 0
KQU1 251526Z 17005KT 20/20 A3002 RMK A01 T02040195  RH  094%=      5-min Rain = 0
KQU1 251527Z 16005KT 21/20 A3002 RMK A01 T02050196  RH  095%=      5-min Rain = 0
KQU1 251528Z 18005KT 21/20 A3002 RMK A01 T02050196  RH  095%=      5-min Rain = 0
KQU1 251529Z 18005KT 21/20 A3003 RMK A01 T02060197  RH  095%=      5-min Rain = 0
KQU1 251530Z 18007KT 21/20 A3003 RMK A01 T02060196  RH  094%=      5-min Rain = 0
KQU1 251531Z 18007KT 21/20 A3003 RMK A01 T02060196  RH  094%=      5-min Rain = 0
KQU1 251532Z 17007KT 21/20 A3003 RMK A01 T02050195  RH  094%=      5-min Rain = 0
KQU1 251533Z 18005KT 21/20 A3003 RMK A01 T02060196  RH  094%=      5-min Rain = 0
KQU1 251534Z 17006KT 21/20 A3003 RMK A01 T02060197  RH  094%=      5-min Rain = 0
KQU1 251535Z 18007KT 21/20 A3003 RMK A01 T02060196  RH  094%=      5-min Rain = 0
KQU1 251536Z 18007KT 21/20 A3002 RMK A01 T02060196  RH  094%=      5-min Rain = 0
KQU1 251537Z 18007KT 21/20 A3002 RMK A01 T02060196  RH  094%=      5-min Rain = 0
KQU1 251538Z 18007KT 21/20 A3002 RMK A01 T02060196  RH  094%=      5-min Rain = 0
KQU1 251539Z 18007KT 21/20 A3002 RMK A01 T02060196  RH  094%=      5-min Rain = 0
KQU1 251540Z 18006KT 21/20 A3002 RMK A01 T02070197  RH  094%=      5-min Rain = 0
KQU1 251541Z 18006KT 21/20 A3002 RMK A01 T02070197  RH  094%=      5-min Rain = 0
KQU1 251542Z 19007KT 21/20 A3002 RMK A01 T02070197  RH  093%=      5-min Rain = 0
KQU1 251543Z 19006KT 21/20 A3002 RMK A01 T02070196  RH  093%=      5-min Rain = 0
KQU1 251544Z 18007KT 21/20 A3002 RMK A01 T02080197  RH  093%=      5-min Rain = 0
KQU1 251545Z 17006KT 21/20 A3002 RMK A01 T02080198  RH  094%=      5-min Rain = 0
KQU1 251546Z 18006KT 21/20 A3002 RMK A01 T02080197  RH  093%=      5-min Rain = 0
KQU1 251547Z 18006KT 21/20 A3002 RMK A01 T02090197  RH  093%=      5-min Rain = 0
KQU1 251548Z 17005KT 21/20 A3002 RMK A01 T02090199  RH  094%=      5-min Rain = 0
KQU1 251549Z 17006KT 21/20 A3002 RMK A01 T02100199  RH  093%=      5-min Rain = 0
KQU1 251550Z 18005KT 21/20 A3002 RMK A01 T02100200  RH  094%=      5-min Rain = 0
KQU1 251551Z 19006KT 21/20 A3002 RMK A01 T02110200  RH  093%=      5-min Rain = 0
KQU1 251552Z 18006KT 21/20 A3002 RMK A01 T02110198  RH  092%=      5-min Rain = 0
KQU1 251553Z 18005KT 21/20 A3002 RMK A01 T02110199  RH  093%=      5-min Rain = 0
KQU1 251554Z 17004KT 21/20 A3002 RMK A01 T02110200  RH  093%=      5-min Rain = 0
KQU1 251555Z 18004KT 21/20 A3002 RMK A01 T02120200  RH  093%=      5-min Rain = 0
KQU1 251556Z 17005KT 21/20 A3002 RMK A01 T02120199  RH  092%=      5-min Rain = 0
KQU1 251557Z 17005KT 21/20 A3002 RMK A01 T02120199  RH  092%=      5-min Rain = 0
KQU1 251558Z 19004KT 21/20 A3002 RMK A01 T02130200  RH  092%=      5-min Rain = 0
KQU1 251559Z 19004KT 21/20 A3002 RMK A01 T02130198  RH  092%=      5-min Rain = 0
KQU1 251600Z 18004KT 21/20 A3002 RMK A01 T02130199  RH  092%=      5-min Rain = 0
KQU1 251601Z 18003KT 21/20 A3002 RMK A01 T02130200  RH  092%=      5-min Rain = 0
KQU1 251602Z 17005KT 21/20 A3002 RMK A01 T02140202  RH  093%=      5-min Rain = 0
KQU1 251603Z 16004KT 21/20 A3002 RMK A01 T02140200  RH  092%=      5-min Rain = 0
KQU1 251604Z 17004KT 22/20 A3002 RMK A01 T02150201  RH  092%=      5-min Rain = 0
KQU1 251605Z 18005KT 22/20 A3002 RMK A01 T02150201  RH  091%=      5-min Rain = 0
KQU1 251606Z 16005KT 22/20 A3002 RMK A01 T02150201  RH  091%=      5-min Rain = 0
KQU1 251607Z 17005KT 22/20 A3002 RMK A01 T02160201  RH  091%=      5-min Rain = 0
KQU1 251608Z 16003KT 22/20 A3001 RMK A01 T02160201  RH  091%=      5-min Rain = 0
KQU1 251609Z 17004KT 22/20 A3001 RMK A01 T02170203  RH  091%=      5-min Rain = 0
KQU1 251610Z 16005KT 22/20 A3001 RMK A01 T02180202  RH  091%=      5-min Rain = 0
KQU1 251611Z 16005KT 22/20 A3001 RMK A01 T02180201  RH  090%=      5-min Rain = 0
KQU1 251612Z 16005KT 22/20 A3001 RMK A01 T02190201  RH  090%=      5-min Rain = 0
KQU1 251613Z 17004KT 22/20 A3001 RMK A01 T02190201  RH  089%=      5-min Rain = 0
KQU1 251614Z 16004KT 22/20 A3001 RMK A01 T02190202  RH  090%=      5-min Rain = 0
KQU1 251615Z 17004KT 22/20 A3001 RMK A01 T02200203  RH  090%=      5-min Rain = 0
KQU1 251616Z 17003KT 22/20 A3001 RMK A01 T02210204  RH  090%=      5-min Rain = 0
KQU1 251617Z 18004KT 22/20 A3001 RMK A01 T02210204  RH  090%=      5-min Rain = 0
KQU1 251618Z 18005KT 22/20 A3001 RMK A01 T02220203  RH  089%=      5-min Rain = 0
KQU1 251619Z 18009KT 22/21 A3001 RMK A01 T02230205  RH  089%=      5-min Rain = 0
KQU1 251620Z 17012KT 22/20 A3001 RMK A01 T02240203  RH  088%=      5-min Rain = 0
KQU1 251621Z 18009KT 23/20 A3001 RMK A01 T02250202  RH  087%=      5-min Rain = 0
KQU1 251622Z 18009KT 23/20 A3001 RMK A01 T02260203  RH  087%=      5-min Rain = 0
KQU1 251623Z 16010KT 23/20 A3001 RMK A01 T02260203  RH  087%=      5-min Rain = 0
KQU1 251624Z 16009KT 23/20 A3001 RMK A01 T02270204  RH  087%=      5-min Rain = 0
KQU1 251625Z 16011KT 23/20 A3001 RMK A01 T02270202  RH  086%=      5-min Rain = 0
KQU1 251626Z 16011KT 23/20 A3001 RMK A01 T02260202  RH  086%=      5-min Rain = 0
KQU1 251627Z 16010KT 23/20 A3001 RMK A01 T02260202  RH  086%=      5-min Rain = 0
KQU1 251628Z 15008KT 23/20 A3001 RMK A01 T02260203  RH  087%=      5-min Rain = 0
KQU1 251629Z 15010KT 23/20 A3001 RMK A01 T02270203  RH  087%=      5-min Rain = 0
KQU1 251630Z 15009KT 23/20 A3001 RMK A01 T02260203  RH  086%=      5-min Rain = 0
KQU1 251631Z 15008KT 23/20 A3001 RMK A01 T02260203  RH  087%=      5-min Rain = 0
KQU1 251632Z 16006KT 23/20 A3001 RMK A01 T02270204  RH  087%=      5-min Rain = 0
KQU1 251633Z 16008KT 23/20 A3001 RMK A01 T02270204  RH  087%=      5-min Rain = 0
KQU1 251634Z 16008KT 23/20 A3001 RMK A01 T02270203  RH  086%=      5-min Rain = 0
KQU1 251635Z 15008KT 23/20 A3001 RMK A01 T02270203  RH  086%=      5-min Rain = 0
KQU1 251636Z 15008KT 23/20 A3001 RMK A01 T02280204  RH  086%=      5-min Rain = 0
KQU1 251637Z 15009KT 23/20 A3001 RMK A01 T02280204  RH  086%=      5-min Rain = 0
KQU1 251638Z 15009KT 23/20 A3001 RMK A01 T02280204  RH  086%=      5-min Rain = 0
KQU1 251639Z 14010KT 23/21 A3001 RMK A01 T02290206  RH  086%=      5-min Rain = 0
KQU1 251640Z 15012KT 23/21 A3001 RMK A01 T02310207  RH  086%=      5-min Rain = 0
KQU1 251641Z 15011KT 23/21 A3001 RMK A01 T02320206  RH  085%=      5-min Rain = 0
KQU1 251642Z 16012KT 23/21 A3001 RMK A01 T02320205  RH  085%=      5-min Rain = 0
KQU1 251643Z 16009KT 23/21 A3001 RMK A01 T02320205  RH  085%=      5-min Rain = 0
KQU1 251644Z 15008KT 23/21 A3001 RMK A01 T02330207  RH  085%=      5-min Rain = 0
KQU1 251645Z 15012KT 23/21 A3001 RMK A01 T02320205  RH  084%=      5-min Rain = 0
KQU1 251646Z 15010KT 23/21 A3001 RMK A01 T02320205  RH  085%=      5-min Rain = 0
KQU1 251647Z 15011KT 23/21 A3001 RMK A01 T02320205  RH  085%=      5-min Rain = 0
KQU1 251648Z 15010KT 23/21 A3001 RMK A01 T02320205  RH  085%=      5-min Rain = 0
KQU1 251649Z 15010KT 23/21 A3001 RMK A01 T02320206  RH  085%=      5-min Rain = 0
KQU1 251650Z 15013KT 23/21 A3001 RMK A01 T02330205  RH  085%=      5-min Rain = 0
KQU1 251651Z 15015KT 23/21 A3001 RMK A01 T02330205  RH  084%=      5-min Rain = 0
KQU1 251652Z 16017KT 23/20 A3001 RMK A01 T02340203  RH  083%=      5-min Rain = 0
KQU1 251653Z 16016KT 24/20 A3001 RMK A01 T02350203  RH  082%=      5-min Rain = 0
KQU1 251654Z 16015KT 24/20 A3001 RMK A01 T02360203  RH  082%=      5-min Rain = 0
KQU1 251655Z 17014KT 24/21 A3001 RMK A01 T02360205  RH  082%=      5-min Rain = 0
KQU1 251656Z 17015KT 24/20 A3001 RMK A01 T02370204  RH  082%=      5-min Rain = 0
KQU1 251657Z 16015KT 24/20 A3001 RMK A01 T02370204  RH  082%=      5-min Rain = 0
KQU1 251658Z 17015KT 24/20 A3001 RMK A01 T02370203  RH  081%=      5-min Rain = 0
KQU1 251659Z 16015KT 24/20 A3001 RMK A01 T02360203  RH  082%=      5-min Rain = 0
KQU1 251700Z 17013KT 24/20 A3001 RMK A01 T02360203  RH  082%=      5-min Rain = 0
KQU1 251701Z 17014KT 24/20 A3002 RMK A01 T02350203  RH  082%=      5-min Rain = 0
KQU1 251702Z 17012KT 23/20 A3002 RMK A01 T02340203  RH  082%=      5-min Rain = 0
KQU1 251703Z 17014KT 23/20 A3001 RMK A01 T02340202  RH  082%=      5-min Rain = 0
KQU1 251704Z 17014KT 23/20 A3001 RMK A01 T02340202  RH  083%=      5-min Rain = 0
KQU1 251705Z 17015KT 23/20 A3001 RMK A01 T02340202  RH  083%=      5-min Rain = 0
KQU1 251706Z 17013KT 23/20 A3001 RMK A01 T02340203  RH  083%=      5-min Rain = 0
KQU1 251707Z 16012KT 23/20 A3001 RMK A01 T02340204  RH  083%=      5-min Rain = 0
KQU1 251708Z 17014KT 24/20 A3001 RMK A01 T02350203  RH  082%=      5-min Rain = 0
KQU1 251709Z 17013KT 24/20 A3001 RMK A01 T02350203  RH  082%=      5-min Rain = 0
KQU1 251710Z 17013KT 24/20 A3001 RMK A01 T02350203  RH  082%=      5-min Rain = 0
KQU1 251711Z 16011KT 24/20 A3001 RMK A01 T02350204  RH  083%=      5-min Rain = 0
KQU1 251712Z 17012KT 24/20 A3001 RMK A01 T02350204  RH  083%=      5-min Rain = 0
KQU1 251713Z 17013KT 24/20 A3001 RMK A01 T02350204  RH  083%=      5-min Rain = 0
KQU1 251714Z 17016KT 23/20 A3001 RMK A01 T02340202  RH  082%=      5-min Rain = 0
KQU1 251715Z 17015KT 23/20 A3001 RMK A01 T02340201  RH  082%=      5-min Rain = 0
KQU1 251716Z 16016KT 23/20 A3001 RMK A01 T02340201  RH  082%=      5-min Rain = 0
KQU1 251717Z 17015KT 23/20 A3001 RMK A01 T02340201  RH  082%=      5-min Rain = 0
KQU1 251718Z 17014KT 24/20 A3001 RMK A01 T02350203  RH  082%=      5-min Rain = 0
KQU1 251719Z 17016KT 24/20 A3001 RMK A01 T02350203  RH  082%=      5-min Rain = 0
KQU1 251720Z 16015KT 24/20 A3001 RMK A01 T02360203  RH  082%=      5-min Rain = 0
KQU1 251721Z 17018KT 24/20 A3001 RMK A01 T02370202  RH  081%=      5-min Rain = 0
KQU1 251722Z 17015KT 24/20 A3001 RMK A01 T02380204  RH  081%=      5-min Rain = 0
KQU1 251723Z 17014KT 24/21 A3001 RMK A01 T02400207  RH  082%=      5-min Rain = 0
KQU1 251724Z 18017G22KT 24/20 A3001 RMK A01 T02420204  RH  079%=      5-min Rain = 0
KQU1 251725Z 17016KT 24/20 A3001 RMK A01 T02420204  RH  079%=      5-min Rain = 0
KQU1 251726Z 17017KT 24/20 A3001 RMK A01 T02420203  RH  079%=      5-min Rain = 0
KQU1 251727Z 18016KT 24/20 A3001 RMK A01 T02420203  RH  079%=      5-min Rain = 0
KQU1 251728Z 18014KT 24/21 A3001 RMK A01 T02420205  RH  080%=      5-min Rain = 0
KQU1 251729Z 18012KT 24/21 A3001 RMK A01 T02420206  RH  080%=      5-min Rain = 0
KQU1 251730Z 18017KT 24/20 A3001 RMK A01 T02420204  RH  079%=      5-min Rain = 0
KQU1 251731Z 18019KT 24/20 A3001 RMK A01 T02410201  RH  078%=      5-min Rain = 0
KQU1 251732Z 18015KT 24/20 A3001 RMK A01 T02400202  RH  079%=      5-min Rain = 0
KQU1 251733Z 18016KT 24/20 A3001 RMK A01 T02400201  RH  079%=      5-min Rain = 0
KQU1 251734Z 18015KT 24/20 A3001 RMK A01 T02400202  RH  079%=      5-min Rain = 0
KQU1 251735Z 18013KT 24/20 A3001 RMK A01 T02400204  RH  080%=      5-min Rain = 0
KQU1 251736Z 18016KT 24/20 A3001 RMK A01 T02400203  RH  080%=      5-min Rain = 0
KQU1 251737Z 18012KT 24/21 A3001 RMK A01 T02410205  RH  080%=      5-min Rain = 0
KQU1 251738Z 17013KT 24/21 A3001 RMK A01 T02410205  RH  080%=      5-min Rain = 0
KQU1 251739Z 17014KT 24/21 A3001 RMK A01 T02420207  RH  081%=      5-min Rain = 0
KQU1 251740Z 16015KT 24/20 A3001 RMK A01 T02420204  RH  080%=      5-min Rain = 0
KQU1 251741Z 16014KT 24/20 A3001 RMK A01 T02400203  RH  079%=      5-min Rain = 0
KQU1 251742Z 17012KT 24/20 A3001 RMK A01 T02400204  RH  080%=      5-min Rain = 0
KQU1 251743Z 17014KT 24/20 A3001 RMK A01 T02390203  RH  080%=      5-min Rain = 0
KQU1 251744Z 17012KT 24/20 A3001 RMK A01 T02380204  RH  081%=      5-min Rain = 0
KQU1 251745Z 17013KT 24/20 A3001 RMK A01 T02380204  RH  081%=      5-min Rain = 0
KQU1 251746Z 16011KT 24/20 A3001 RMK A01 T02380204  RH  081%=      5-min Rain = 0
KQU1 251747Z 17013KT 24/20 A3001 RMK A01 T02370203  RH  081%=      5-min Rain = 0
KQU1 251748Z 17016KT 24/20 A3001 RMK A01 T02370202  RH  081%=      5-min Rain = 0
KQU1 251749Z 17013KT 24/20 A3001 RMK A01 T02370203  RH  082%=      5-min Rain = 0
KQU1 251750Z 17013KT 24/20 A3001 RMK A01 T02370203  RH  081%=      5-min Rain = 0
KQU1 251751Z 17014KT 24/20 A3001 RMK A01 T02370203  RH  081%=      5-min Rain = 0
KQU1 251752Z 17011KT 24/20 A3001 RMK A01 T02370204  RH  082%=      5-min Rain = 0
KQU1 251753Z 17010KT 24/21 A3001 RMK A01 T02370205  RH  082%=      5-min Rain = 0
KQU1 251754Z 16012KT 24/20 A3001 RMK A01 T02370204  RH  082%=      5-min Rain = 0
KQU1 251755Z 16015KT 24/20 A3001 RMK A01 T02370203  RH  081%=      5-min Rain = 0
KQU1 251756Z 16016KT 24/20 A3001 RMK A01 T02360202  RH  081%=      5-min Rain = 0
KQU1 251757Z 17014KT 24/20 A30 RMK A01 T02350202  RH  082%=      5-min Rain = 0
KQU1 251758Z 16013KT 23/20 A30 RMK A01 T02340202  RH  082%=      5-min Rain = 0
KQU1 251759Z 16013KT 23/20 A30 RMK A01 T02340203  RH  083%=      5-min Rain = 0
KQU1 251800Z 15018KT 23/20 A30 RMK A01 T02340202  RH  082%=      5-min Rain = 0
KQU1 251801Z 16016KT 23/20 A30 RMK A01 T02340202  RH  082%=      5-min Rain = 0
KQU1 251802Z 16017KT 23/20 A30 RMK A01 T02330200  RH  082%=      5-min Rain = 0
KQU1 251803Z 16015KT 23/20 A30 RMK A01 T02320201  RH  082%=      5-min Rain = 0
KQU1 251804Z 16012G17KT 23/20 A30 RMK A01 T02320202  RH  083%=      5-min Rain = 0
KQU1 251805Z 16016KT 23/20 A30 RMK A01 T02320201  RH  083%=      5-min Rain = 0
KQU1 251806Z 17017KT 23/20 A3001 RMK A01 T02320201  RH  083%=      5-min Rain = 0
KQU1 251807Z 16015KT 23/20 A3001 RMK A01 T02320202  RH  083%=      5-min Rain = 0
KQU1 251808Z 15015KT 23/20 A30 RMK A01 T02320201  RH  083%=      5-min Rain = 0
KQU1 251809Z 16013KT 23/20 A30 RMK A01 T02330202  RH  083%=      5-min Rain = 0
KQU1 251810Z 16011KT 23/20 A30 RMK A01 T02340204  RH  083%=      5-min Rain = 0
KQU1 251811Z 16013KT 24/20 A30 RMK A01 T02350204  RH  083%=      5-min Rain = 0
KQU1 251812Z 17013KT 24/20 A30 RMK A01 T02350204  RH  082%=      5-min Rain = 0
KQU1 251813Z 17015KT 24/20 A30 RMK A01 T02360203  RH  082%=      5-min Rain = 0
KQU1 251814Z 17013KT 24/20 A30 RMK A01 T02360203  RH  082%=      5-min Rain = 0
KQU1 251815Z 17010KT 24/21 A30 RMK A01 T02370206  RH  083%=      5-min Rain = 0
KQU1 251816Z 17011KT 24/21 A30 RMK A01 T02380206  RH  082%=      5-min Rain = 0
KQU1 251817Z 17012KT 24/21 A30 RMK A01 T02380206  RH  082%=      5-min Rain = 0
KQU1 251818Z 18016KT 24/20 A30 RMK A01 T02380204  RH  081%=      5-min Rain = 0
KQU1 251819Z 17014KT 24/20 A3001 RMK A01 T02370204  RH  082%=      5-min Rain = 0
KQU1 251820Z 17015KT 24/20 A3001 RMK A01 T02360203  RH  082%=      5-min Rain = 0
KQU1 251821Z 16016KT 24/20 A30 RMK A01 T02350202  RH  081%=      5-min Rain = 0
KQU1 251822Z 17016KT 23/20 A30 RMK A01 T02340202  RH  082%=      5-min Rain = 0
KQU1 251823Z 16012KT 23/20 A30 RMK A01 T02340203  RH  083%=      5-min Rain = 0
KQU1 251824Z 16013KT 23/20 A30 RMK A01 T02330202  RH  083%=      5-min Rain = 0
KQU1 251825Z 16012KT 23/20 A30 RMK A01 T02330203  RH  083%=      5-min Rain = 0
KQU1 251826Z 16014KT 23/20 A30 RMK A01 T02330203  RH  083%=      5-min Rain = 0
KQU1 251827Z 16016KT 23/20 A3001 RMK A01 T02330202  RH  083%=      5-min Rain = 0
KQU1 251828Z 16015KT 23/20 A3001 RMK A01 T02330202  RH  083%=      5-min Rain = 0
KQU1 251829Z 16015KT 23/20 A3001 RMK A01 T02320202  RH  083%=      5-min Rain = 0
KQU1 251830Z 16013KT 23/20 A3001 RMK A01 T02320202  RH  083%=      5-min Rain = 0
KQU1 251831Z 16013G18KT 23/20 A30 RMK A01 T02320202  RH  083%=      5-min Rain = 0
KQU1 251832Z 15015KT 23/20 A30 RMK A01 T02310201  RH  083%=      5-min Rain = 0
KQU1 251833Z 16013KT 23/20 A30 RMK A01 T02310201  RH  083%=      5-min Rain = 0
KQU1 251834Z 15015KT 23/20 A30 RMK A01 T02300201  RH  084%=      5-min Rain = 0
KQU1 251835Z 15016KT 23/20 A30 RMK A01 T02300201  RH  084%=      5-min Rain = 0
KQU1 251836Z 15014KT 23/20 A30 RMK A01 T02300201  RH  084%=      5-min Rain = 0
KQU1 251837Z 15013KT 23/20 A30 RMK A01 T02300201  RH  084%=      5-min Rain = 0
KQU1 251838Z 15013KT 23/20 A30 RMK A01 T02300202  RH  084%=      5-min Rain = 0
KQU1 251839Z 15013KT 23/20 A30 RMK A01 T02300202  RH  084%=      5-min Rain = 0
KQU1 251840Z 15014KT 23/20 A30 RMK A01 T02300202  RH  084%=      5-min Rain = 0
KQU1 251841Z 15012KT 23/20 A30 RMK A01 T02300204  RH  085%=      5-min Rain = 0
KQU1 251842Z 15012KT 23/20 A30 RMK A01 T02310203  RH  085%=      5-min Rain = 0
KQU1 251843Z 15012KT 23/20 A30 RMK A01 T02310204  RH  085%=      5-min Rain = 0
KQU1 251844Z 16015KT 23/20 A2999 RMK A01 T02310203  RH  084%=      5-min Rain = 0
KQU1 251845Z 16015KT 23/20 A2999 RMK A01 T02300202  RH  084%=      5-min Rain = 0
KQU1 251846Z 15012KT 23/20 A30 RMK A01 T02290203  RH  085%=      5-min Rain = 0
KQU1 251847Z 15012KT 23/20 A30 RMK A01 T02290203  RH  085%=      5-min Rain = 0
KQU1 251848Z 16012KT 23/20 A30 RMK A01 T02280203  RH  086%=      5-min Rain = 0
KQU1 251849Z 16014KT 23/20 A30 RMK A01 T02280202  RH  086%=      5-min Rain = 0
KQU1 251850Z 16014KT 23/20 A30 RMK A01 T02270202  RH  086%=      5-min Rain = 0
KQU1 251851Z 16014KT 23/20 A30 RMK A01 T02270202  RH  086%=      5-min Rain = 0
KQU1 251852Z 16014KT 23/20 A2999 RMK A01 T02260201  RH  086%=      5-min Rain = 0
KQU1 251853Z 16014KT 23/20 A2999 RMK A01 T02260201  RH  086%=      5-min Rain = 0
KQU1 251854Z 17014KT 23/20 A2999 RMK A01 T02260202  RH  086%=      5-min Rain = 0
KQU1 251855Z 16011KT 23/20 A2999 RMK A01 T02260202  RH  086%=      5-min Rain = 0
KQU1 251856Z 16012KT 23/20 A2999 RMK A01 T02260203  RH  086%=      5-min Rain = 0
KQU1 251857Z 16012KT 23/20 A2999 RMK A01 T02270203  RH  086%=      5-min Rain = 0
KQU1 251858Z 16012KT 23/20 A2999 RMK A01 T02270203  RH  086%=      5-min Rain = 0
KQU1 251859Z 16011KT 23/20 A2999 RMK A01 T02280204  RH  086%=      5-min Rain = 0
KQU1 251900Z 17012KT 23/20 A2999 RMK A01 T02280203  RH  086%=      5-min Rain = 0
KQU1 251901Z 17010KT 23/20 A2999 RMK A01 T02280204  RH  086%=      5-min Rain = 0
KQU1 251902Z 17011KT 23/20 A2999 RMK A01 T02290204  RH  086%=      5-min Rain = 0
KQU1 251903Z 16010KT 23/21 A2999 RMK A01 T02290205  RH  086%=      5-min Rain = 0
KQU1 251904Z 16011KT 23/21 A2998 RMK A01 T02300206  RH  086%=      5-min Rain = 0
KQU1 251905Z 17012KT 23/21 A2998 RMK A01 T02300205  RH  086%=      5-min Rain = 0
KQU1 251906Z 17011KT 23/21 A2998 RMK A01 T02300205  RH  085%=      5-min Rain = 0
KQU1 251907Z 17011KT 23/21 A2998 RMK A01 T02310205  RH  085%=      5-min Rain = 0
KQU1 251908Z 16012KT 23/21 A2998 RMK A01 T02310205  RH  085%=      5-min Rain = 0
KQU1 251909Z 16012KT 23/20 A2998 RMK A01 T02310204  RH  085%=      5-min Rain = 0
KQU1 251910Z 16012KT 23/20 A2998 RMK A01 T02310204  RH  085%=      5-min Rain = 0
KQU1 251911Z 16012KT 23/20 A2998 RMK A01 T02310204  RH  085%=      5-min Rain = 0
KQU1 251912Z 16011KT 23/20 A2998 RMK A01 T02310203  RH  084%=      5-min Rain = 0
KQU1 251913Z 16012KT 23/20 A2998 RMK A01 T02310204  RH  085%=      5-min Rain = 0
KQU1 251914Z 16015KT 23/20 A2998 RMK A01 T02300203  RH  084%=      5-min Rain = 0
KQU1 251915Z 16011KT 23/20 A2998 RMK A01 T02300203  RH  084%=      5-min Rain = 0
KQU1 251916Z 16014KT 23/20 A2998 RMK A01 T02300202  RH  084%=      5-min Rain = 0
KQU1 251917Z 16013KT 23/20 A2997 RMK A01 T02300203  RH  084%=      5-min Rain = 0
KQU1 251918Z 16013KT 23/20 A2997 RMK A01 T02300203  RH  085%=      5-min Rain = 0
KQU1 251919Z 15013KT 23/20 A2997 RMK A01 T02300202  RH  084%=      5-min Rain = 0
KQU1 251920Z 15014KT 23/20 A2996 RMK A01 T02300202  RH  084%=      5-min Rain = 0
KQU1 251921Z 16015KT 23/20 A2996 RMK A01 T02300202  RH  084%=      5-min Rain = 0
KQU1 251922Z 16015KT 23/20 A2996 RMK A01 T02300202  RH  084%=      5-min Rain = 0
KQU1 251923Z 16013KT 23/20 A2996 RMK A01 T02310202  RH  084%=      5-min Rain = 0
KQU1 251924Z 16013KT 23/20 A2996 RMK A01 T02310203  RH  084%=      5-min Rain = 0
KQU1 251925Z 16013KT 23/20 A2996 RMK A01 T02310203  RH  084%=      5-min Rain = 0
KQU1 251926Z 16014KT 23/20 A2996 RMK A01 T02310203  RH  084%=      5-min Rain = 0
KQU1 251927Z 16014KT 23/20 A2997 RMK A01 T02300202  RH  084%=      5-min Rain = 0
KQU1 251928Z 16014KT 23/20 A2997 RMK A01 T02300201  RH  084%=      5-min Rain = 0
KQU1 251929Z 16014KT 23/20 A2997 RMK A01 T02310201  RH  084%=      5-min Rain = 0
KQU1 251930Z 16014KT 23/20 A2997 RMK A01 T02310201  RH  084%=      5-min Rain = 0
KQU1 251931Z 16012KT 23/20 A2996 RMK A01 T02310202  RH  084%=      5-min Rain = 0
KQU1 251932Z 16012KT 23/20 A2996 RMK A01 T02310202  RH  084%=      5-min Rain = 0
KQU1 251933Z 17011KT 23/20 A2996 RMK A01 T02310202  RH  084%=      5-min Rain = 0
KQU1 251934Z 17012KT 23/20 A2996 RMK A01 T02310203  RH  084%=      5-min Rain = 0
KQU1 251935Z 17011KT 23/20 A2997 RMK A01 T02310203  RH  084%=      5-min Rain = 0
KQU1 251936Z 17009KT 23/20 A2997 RMK A01 T02310203  RH  084%=      5-min Rain = 0
KQU1 251937Z 17011KT 23/20 A2997 RMK A01 T02310203  RH  084%=      5-min Rain = 0
KQU1 251938Z 17011KT 23/20 A2997 RMK A01 T02310203  RH  084%=      5-min Rain = 0
KQU1 251939Z 17009KT 23/20 A2997 RMK A01 T02310204  RH  085%=      5-min Rain = 0
KQU1 251940Z 18011KT 23/20 A2997 RMK A01 T02310203  RH  084%=      5-min Rain = 0
KQU1 251941Z 17012KT 23/20 A2997 RMK A01 T02310203  RH  084%=      5-min Rain = 0
KQU1 251942Z 18012KT 23/20 A2997 RMK A01 T02310202  RH  084%=      5-min Rain = 0
KQU1 251943Z 17012KT 23/20 A2997 RMK A01 T02310201  RH  083%=      5-min Rain = 0
KQU1 251944Z 17012KT 23/20 A2997 RMK A01 T02310201  RH  083%=      5-min Rain = 0
KQU1 251945Z 17011KT 23/20 A2997 RMK A01 T02310201  RH  083%=      5-min Rain = 0
KQU1 251946Z 17010KT 23/20 A2997 RMK A01 T02310202  RH  084%=      5-min Rain = 0
KQU1 251947Z 17009KT 23/20 A2997 RMK A01 T02300202  RH  084%=      5-min Rain = 0
KQU1 251948Z 16008KT 23/20 A2997 RMK A01 T02300202  RH  084%=      5-min Rain = 0
KQU1 251949Z 16008KT 23/20 A2996 RMK A01 T02300202  RH  085%=      5-min Rain = 0
KQU1 251950Z 16008KT 23/20 A2996 RMK A01 T02290202  RH  085%=      5-min Rain = 0
KQU1 251951Z 16009KT 23/20 A2996 RMK A01 T02290202  RH  085%=      5-min Rain = 0
KQU1 251952Z 16008KT 23/20 A2996 RMK A01 T02290202  RH  085%=      5-min Rain = 0
KQU1 251953Z 16010KT 23/20 A2996 RMK A01 T02290202  RH  085%=      5-min Rain = 0
KQU1 251954Z 15012KT 23/20 A2996 RMK A01 T02290201  RH  085%=      5-min Rain = 0
KQU1 251955Z 15011KT 23/20 A2996 RMK A01 T02290202  RH  085%=      5-min Rain = 0
KQU1 251956Z 15010KT 23/20 A2996 RMK A01 T02290202  RH  085%=      5-min Rain = 0
KQU1 251957Z 16010KT 23/20 A2996 RMK A01 T02290202  RH  085%=      5-min Rain = 0
KQU1 251958Z 16010KT 23/20 A2996 RMK A01 T02280202  RH  085%=      5-min Rain = 0
KQU1 251959Z 16009KT 23/20 A2996 RMK A01 T02280203  RH  085%=      5-min Rain = 0
KQU1 252000Z 15008KT 23/20 A2996 RMK A01 T02280203  RH  086%=      5-min Rain = 0
KQU1 252001Z 15008KT 23/20 A2996 RMK A01 T02280203  RH  086%=      5-min Rain = 0
KQU1 252002Z 15008KT 23/20 A2996 RMK A01 T02270203  RH  086%=      5-min Rain = 0
KQU1 252003Z 15009KT 23/20 A2995 RMK A01 T02270203  RH  086%=      5-min Rain = 0
KQU1 252004Z 15009KT 23/20 A2995 RMK A01 T02260203  RH  087%=      5-min Rain = 0
KQU1 252005Z 15009KT 23/20 A2995 RMK A01 T02260204  RH  087%=      5-min Rain = 0
KQU1 252006Z 15009KT 23/20 A2995 RMK A01 T02250204  RH  088%=      5-min Rain = 0
KQU1 252007Z 15008KT 23/20 A2995 RMK A01 T02250204  RH  088%=      5-min Rain = 0
KQU1 252008Z 15009KT 22/20 A2995 RMK A01 T02240204  RH  089%=      5-min Rain = 0
KQU1 252009Z 15009KT 22/20 A2995 RMK A01 T02230204  RH  089%=      5-min Rain = 0
KQU1 252010Z 15009KT 22/20 A2995 RMK A01 T02230204  RH  089%=      5-min Rain = 0
KQU1 252011Z 15010KT 22/20 A2995 RMK A01 T02230204  RH  089%=      5-min Rain = 0
KQU1 252012Z 15008KT 22/20 A2994 RMK A01 T02220204  RH  090%=      5-min Rain = 0
KQU1 252013Z 15008KT 22/21 A2994 RMK A01 T02220205  RH  090%=      5-min Rain = 0
KQU1 252014Z 16008KT 22/21 A2994 RMK A01 T02220205  RH  090%=      5-min Rain = 0
KQU1 252015Z 16008KT 22/21 A2995 RMK A01 T02220205  RH  090%=      5-min Rain = 0
KQU1 252016Z 16008KT 22/21 A2995 RMK A01 T02220205  RH  090%=      5-min Rain = 0
KQU1 252017Z 17008KT 22/21 A2996 RMK A01 T02220205  RH  090%=      5-min Rain = 0
KQU1 252018Z 17008KT 22/21 A2996 RMK A01 T02220205  RH  090%=      5-min Rain = 0
KQU1 252019Z 17009KT 22/20 A2996 RMK A01 T02220204  RH  090%=      5-min Rain = 0
KQU1 252020Z 16009KT 22/20 A2995 RMK A01 T02220204  RH  090%=      5-min Rain = 0
KQU1 252021Z 16008KT 22/21 A2995 RMK A01 T02220205  RH  090%=      5-min Rain = 0
KQU1 252022Z 16009KT 22/20 A2995 RMK A01 T02230204  RH  089%=      5-min Rain = 0
KQU1 252023Z 16008KT 22/21 A2995 RMK A01 T02230205  RH  090%=      5-min Rain = 0
KQU1 252024Z 16009KT 22/21 A2995 RMK A01 T02230205  RH  090%=      5-min Rain = 0
KQU1 252025Z 16009KT 22/21 A2995 RMK A01 T02230205  RH  090%=      5-min Rain = 0
KQU1 252026Z 17009KT 22/21 A2995 RMK A01 T02230205  RH  090%=      5-min Rain = 0
KQU1 252027Z 16010KT 22/21 A2996 RMK A01 T02230205  RH  089%=      5-min Rain = 0
KQU1 252028Z 17010KT 22/21 A2996 RMK A01 T02230205  RH  089%=      5-min Rain = 0
KQU1 252029Z 17009KT 22/21 A2996 RMK A01 T02230205  RH  089%=      5-min Rain = 0
KQU1 252030Z 17009KT 22/21 A2996 RMK A01 T02230205  RH  089%=      5-min Rain = 0
KQU1 252031Z 17008KT 22/21 A2996 RMK A01 T02230205  RH  089%=      5-min Rain = 0
KQU1 252032Z 17008KT 22/21 A2996 RMK A01 T02240205  RH  089%=      5-min Rain = 0
KQU1 252033Z 17008KT 22/21 A2996 RMK A01 T02240205  RH  089%=      5-min Rain = 0
KQU1 252034Z 17007KT 22/21 A2996 RMK A01 T02240205  RH  089%=      5-min Rain = 0
KQU1 252035Z 17007KT 22/21 A2996 RMK A01 T02230205  RH  089%=      5-min Rain = 0
KQU1 252036Z 17007KT 22/21 A2996 RMK A01 T02230205  RH  089%=      5-min Rain = 0
KQU1 252037Z 17008KT 22/21 A2996 RMK A01 T02230205  RH  089%=      5-min Rain = 0
KQU1 252038Z 17007KT 22/21 A2996 RMK A01 T02240205  RH  089%=      5-min Rain = 0
KQU1 252039Z 18008KT 22/21 A2996 RMK A01 T02240205  RH  089%=      5-min Rain = 0
KQU1 252040Z 17008KT 22/20 A2996 RMK A01 T02240204  RH  089%=      5-min Rain = 0
KQU1 252041Z 17009KT 22/20 A2996 RMK A01 T02240204  RH  089%=      5-min Rain = 0
KQU1 252042Z 17010KT 22/20 A2996 RMK A01 T02240204  RH  088%=      5-min Rain = 0
KQU1 252043Z 17010KT 22/20 A2995 RMK A01 T02240203  RH  088%=      5-min Rain = 0
KQU1 252044Z 17009KT 22/20 A2995 RMK A01 T02240203  RH  088%=      5-min Rain = 0
KQU1 252045Z 16009KT 22/20 A2995 RMK A01 T02240203  RH  088%=      5-min Rain = 0
KQU1 252046Z 16008KT 22/20 A2995 RMK A01 T02240203  RH  088%=      5-min Rain = 0
KQU1 252047Z 16007KT 22/20 A2994 RMK A01 T02240203  RH  088%=      5-min Rain = 0
KQU1 252048Z 16007KT 22/20 A2994 RMK A01 T02240203  RH  088%=      5-min Rain = 0
KQU1 252049Z 16009KT 22/20 A2995 RMK A01 T02240203  RH  088%=      5-min Rain = 0
KQU1 252050Z 16007KT 22/20 A2995 RMK A01 T02240203  RH  088%=      5-min Rain = 0
KQU1 252051Z 17007KT 22/20 A2995 RMK A01 T02240203  RH  088%=      5-min Rain = 0
KQU1 252052Z 17008KT 22/20 A2995 RMK A01 T02240203  RH  088%=      5-min Rain = 0
KQU1 252053Z 16008KT 22/20 A2995 RMK A01 T02240203  RH  087%=      5-min Rain = 0
KQU1 252054Z 17007KT 23/20 A2995 RMK A01 T02250203  RH  087%=      5-min Rain = 0
KQU1 252055Z 17007KT 23/20 A2995 RMK A01 T02250203  RH  087%=      5-min Rain = 0
KQU1 252056Z 17006KT 22/20 A2995 RMK A01 T02240203  RH  087%=      5-min Rain = 0
KQU1 252057Z 17007KT 22/20 A2995 RMK A01 T02240203  RH  087%=      5-min Rain = 0
KQU1 252058Z 17008KT 22/20 A2995 RMK A01 T02240203  RH  087%=      5-min Rain = 0
KQU1 252059Z 17008KT 22/20 A2995 RMK A01 T02240202  RH  087%=      5-min Rain = 0
KQU1 252100Z 17008KT 22/20 A2995 RMK A01 T02240203  RH  087%=      5-min Rain = 0
KQU1 252101Z 17008KT 22/20 A2995 RMK A01 T02240202  RH  088%=      5-min Rain = 0
KQU1 252102Z 17008KT 22/20 A2995 RMK A01 T02240203  RH  088%=      5-min Rain = 0
KQU1 252103Z 16008KT 22/20 A2995 RMK A01 T02240202  RH  087%=      5-min Rain = 0
KQU1 252104Z 17009KT 22/20 A2995 RMK A01 T02240203  RH  088%=      5-min Rain = 0
KQU1 252105Z 17011KT 22/20 A2995 RMK A01 T02240202  RH  087%=      5-min Rain = 0
KQU1 252106Z 17009KT 22/20 A2995 RMK A01 T02240203  RH  087%=      5-min Rain = 0
KQU1 252107Z 17009KT 22/20 A2995 RMK A01 T02240203  RH  088%=      5-min Rain = 0
KQU1 252108Z 17010KT 22/20 A2995 RMK A01 T02240203  RH  088%=      5-min Rain = 0
KQU1 252109Z 18010KT 22/20 A2995 RMK A01 T02240203  RH  088%=      5-min Rain = 0
KQU1 252110Z 18010KT 22/20 A2995 RMK A01 T02240203  RH  088%=      5-min Rain = 0
KQU1 252111Z 17010KT 23/20 A2995 RMK A01 T02250203  RH  088%=      5-min Rain = 0
KQU1 252112Z 18010KT 23/20 A2995 RMK A01 T02250204  RH  088%=      5-min Rain = 0
KQU1 252113Z 18009KT 23/20 A2995 RMK A01 T02250204  RH  088%=      5-min Rain = 0
KQU1 252114Z 18010KT 23/20 A2995 RMK A01 T02250204  RH  088%=      5-min Rain = 0
KQU1 252115Z 19009KT 23/20 A2995 RMK A01 T02250204  RH  088%=      5-min Rain = 0
KQU1 252116Z 19009KT 23/20 A2995 RMK A01 T02260204  RH  088%=      5-min Rain = 0
KQU1 252117Z 19009KT 23/21 A2995 RMK A01 T02260205  RH  088%=      5-min Rain = 0
KQU1 252118Z 19009KT 23/20 A2995 RMK A01 T02260204  RH  088%=      5-min Rain = 0
KQU1 252119Z 19009KT 23/20 A2995 RMK A01 T02260204  RH  087%=      5-min Rain = 0
KQU1 252120Z 19009KT 23/21 A2995 RMK A01 T02270205  RH  087%=      5-min Rain = 0
KQU1 252121Z 19008KT 23/20 A2995 RMK A01 T02270204  RH  087%=      5-min Rain = 0
KQU1 252122Z 18007KT 23/21 A2995 RMK A01 T02270205  RH  087%=      5-min Rain = 0
KQU1 252123Z 18009KT 23/21 A2995 RMK A01 T02270205  RH  087%=      5-min Rain = 0
KQU1 252124Z 18008KT 23/21 A2995 RMK A01 T02280205  RH  087%=      5-min Rain = 0
KQU1 252125Z 18008KT 23/21 A2995 RMK A01 T02280205  RH  087%=      5-min Rain = 0
KQU1 252126Z 18008KT 23/21 A2995 RMK A01 T02280205  RH  087%=      5-min Rain = 0
KQU1 252127Z 18008KT 23/21 A2994 RMK A01 T02290206  RH  087%=      5-min Rain = 0
KQU1 252128Z 19008KT 23/21 A2994 RMK A01 T02290205  RH  086%=      5-min Rain = 0
KQU1 252129Z 19007KT 23/21 A2994 RMK A01 T02300206  RH  086%=      5-min Rain = 0
KQU1 252130Z 18006KT 23/21 A2994 RMK A01 T02300206  RH  086%=      5-min Rain = 0
KQU1 252131Z 19006KT 23/21 A2994 RMK A01 T02310206  RH  086%=      5-min Rain = 0
KQU1 252132Z 19006KT 23/21 A2994 RMK A01 T02310206  RH  086%=      5-min Rain = 0
KQU1 252133Z 20005KT 23/21 A2994 RMK A01 T02310206  RH  086%=      5-min Rain = 0
KQU1 252134Z 20006KT 23/21 A2994 RMK A01 T02320206  RH  086%=      5-min Rain = 0
KQU1 252135Z 20006KT 23/21 A2994 RMK A01 T02320206  RH  086%=      5-min Rain = 0
KQU1 252136Z 20007KT 23/21 A2994 RMK A01 T02320206  RH  085%=      5-min Rain = 0
KQU1 252137Z 20006KT 23/21 A2994 RMK A01 T02320206  RH  085%=      5-min Rain = 0
KQU1 252138Z 19005KT 23/21 A2994 RMK A01 T02320206  RH  085%=      5-min Rain = 0
KQU1 252139Z 19005KT 23/21 A2994 RMK A01 T02320206  RH  085%=      5-min Rain = 0
KQU1 252140Z 18004KT 23/21 A2994 RMK A01 T02330206  RH  085%=      5-min Rain = 0
KQU1 252141Z 18004KT 23/21 A2994 RMK A01 T02330206  RH  085%=      5-min Rain = 0
KQU1 252142Z 19004KT 23/21 A2994 RMK A01 T02330206  RH  085%=      5-min Rain = 0
KQU1 252143Z 18003KT 23/21 A2994 RMK A01 T02330206  RH  085%=      5-min Rain = 0
KQU1 252144Z 18002KT 23/21 A2993 RMK A01 T02330206  RH  085%=      5-min Rain = 0
KQU1 252145Z 21001KT 23/21 A2993 RMK A01 T02330207  RH  085%=      5-min Rain = 0
KQU1 252146Z 20002KT 23/21 A2993 RMK A01 T02330207  RH  085%=      5-min Rain = 0
KQU1 252147Z 17001KT 23/21 A2992 RMK A01 T02340208  RH  085%=      5-min Rain = 0
KQU1 252148Z 18001KT 23/21 A2992 RMK A01 T02340208  RH  085%=      5-min Rain = 0
KQU1 252149Z 17000KT 23/21 A2992 RMK A01 T02340207  RH  085%=      5-min Rain = 0
KQU1 252150Z 16001KT 23/21 A2993 RMK A01 T02340207  RH  085%=      5-min Rain = 0
KQU1 252151Z 15002KT 23/21 A2993 RMK A01 T02340206  RH  084%=      5-min Rain = 0
KQU1 252152Z 16003KT 23/21 A2993 RMK A01 T02340206  RH  084%=      5-min Rain = 0
KQU1 252153Z 17002KT 24/21 A2993 RMK A01 T02350207  RH  084%=      5-min Rain = 0
KQU1 252154Z 16001KT 24/21 A2993 RMK A01 T02350208  RH  085%=      5-min Rain = 0
KQU1 252155Z 18001KT 24/21 A2993 RMK A01 T02350208  RH  085%=      5-min Rain = 0
KQU1 252156Z 19002KT 24/21 A2993 RMK A01 T02350207  RH  084%=      5-min Rain = 0
KQU1 252157Z 19003KT 24/21 A2993 RMK A01 T02350206  RH  084%=      5-min Rain = 0
KQU1 252158Z 18002KT 23/21 A2992 RMK A01 T02340205  RH  084%=      5-min Rain = 0
KQU1 252159Z 18002KT 23/21 A2992 RMK A01 T02340205  RH  084%=      5-min Rain = 0
KQU1 252200Z 18003KT 23/21 A2993 RMK A01 T02340205  RH  084%=      5-min Rain = 0
KQU1 252201Z 18003KT 23/21 A2993 RMK A01 T02340205  RH  084%=      5-min Rain = 0
KQU1 252202Z 18002KT 23/21 A2992 RMK A01 T02330206  RH  085%=      5-min Rain = 0
KQU1 252203Z 18003KT 23/21 A2992 RMK A01 T02330205  RH  085%=      5-min Rain = 0
KQU1 252204Z 17002KT 23/21 A2992 RMK A01 T02330206  RH  085%=      5-min Rain = 0
KQU1 252205Z 17002KT 23/21 A2992 RMK A01 T02320206  RH  085%=      5-min Rain = 0
KQU1 252206Z 16003KT 23/21 A2992 RMK A01 T02320206  RH  085%=      5-min Rain = 0
KQU1 252207Z 16002KT 23/21 A2992 RMK A01 T02320206  RH  086%=      5-min Rain = 0
KQU1 252208Z 17003KT 23/21 A2993 RMK A01 T02320207  RH  086%=      5-min Rain = 0
KQU1 252209Z 18002KT 23/21 A2993 RMK A01 T02310207  RH  086%=      5-min Rain = 0
KQU1 252210Z 18002KT 23/21 A2992 RMK A01 T02310206  RH  086%=      5-min Rain = 0
KQU1 252211Z 18002KT 23/21 A2992 RMK A01 T02310207  RH  086%=      5-min Rain = 0
KQU1 252212Z 18002KT 23/21 A2993 RMK A01 T02310207  RH  086%=      5-min Rain = 0
KQU1 252213Z 19001KT 23/21 A2993 RMK A01 T02310207  RH  086%=      5-min Rain = 0
KQU1 252214Z 20002KT 23/21 A2993 RMK A01 T02310207  RH  087%=      5-min Rain = 0
KQU1 252215Z 20002KT 23/21 A2993 RMK A01 T02310207  RH  087%=      5-min Rain = 0
KQU1 252216Z 19002KT 23/21 A2993 RMK A01 T02300207  RH  087%=      5-min Rain = 0
KQU1 252217Z 19002KT 23/21 A2993 RMK A01 T02300208  RH  087%=      5-min Rain = 0
KQU1 252218Z 19002KT 23/21 A2993 RMK A01 T02300208  RH  087%=      5-min Rain = 0
KQU1 252219Z 19003KT 23/21 A2993 RMK A01 T02300208  RH  087%=      5-min Rain = 0
KQU1 252220Z 18004KT 23/21 A2993 RMK A01 T02300208  RH  087%=      5-min Rain = 0
KQU1 252221Z 18005KT 23/21 A2993 RMK A01 T02300208  RH  087%=      5-min Rain = 0
KQU1 252222Z 18005KT 23/21 A2993 RMK A01 T02290207  RH  087%=      5-min Rain = 0
KQU1 252223Z 18005KT 23/21 A2993 RMK A01 T02290208  RH  088%=      5-min Rain = 0
KQU1 252224Z 17005KT 23/21 A2992 RMK A01 T02290208  RH  088%=      5-min Rain = 0
KQU1 252225Z 17005KT 23/21 A2992 RMK A01 T02290208  RH  088%=      5-min Rain = 0
KQU1 252226Z 16005KT 23/21 A2992 RMK A01 T02280208  RH  088%=      5-min Rain = 0
KQU1 252227Z 16006KT 23/21 A2992 RMK A01 T02280207  RH  088%=      5-min Rain = 0
KQU1 252228Z 16006KT 23/21 A2992 RMK A01 T02270207  RH  088%=      5-min Rain = 0
KQU1 252229Z 16004KT 23/21 A2992 RMK A01 T02270207  RH  088%=      5-min Rain = 0
KQU1 252230Z 16004KT 23/21 A2992 RMK A01 T02270207  RH  089%=      5-min Rain = 0
KQU1 252231Z 16004KT 23/21 A2992 RMK A01 T02270207  RH  089%=      5-min Rain = 0
KQU1 252232Z 16004KT 23/21 A2992 RMK A01 T02270207  RH  089%=      5-min Rain = 0
KQU1 252233Z 16003KT 23/21 A2992 RMK A01 T02270207  RH  089%=      5-min Rain = 0
KQU1 252234Z 15003KT 23/21 A2991 RMK A01 T02270207  RH  089%=      5-min Rain = 0
KQU1 252235Z 14002KT 23/21 A2991 RMK A01 T02270207  RH  089%=      5-min Rain = 0
KQU1 252236Z 12002KT 23/21 A2991 RMK A01 T02270207  RH  089%=      5-min Rain = 0
KQU1 252237Z 13002KT 23/21 A2991 RMK A01 T02260207  RH  089%=      5-min Rain = 0
KQU1 252238Z 13002KT 23/21 A2991 RMK A01 T02260207  RH  089%=      5-min Rain = 0
KQU1 252239Z 13001KT 23/21 A2991 RMK A01 T02260207  RH  089%=      5-min Rain = 0
KQU1 252240Z 18000KT 23/21 A2992 RMK A01 T02270207  RH  089%=      5-min Rain = 0
KQU1 252241Z 19002KT 23/21 A2992 RMK A01 T02270207  RH  089%=      5-min Rain = 0
KQU1 252242Z 20002KT 23/21 A2992 RMK A01 T02260207  RH  089%=      5-min Rain = 0
KQU1 252243Z 19003KT 23/21 A2992 RMK A01 T02260207  RH  089%=      5-min Rain = 0
KQU1 252244Z 19003KT 23/21 A2993 RMK A01 T02260207  RH  089%=      5-min Rain = 0
KQU1 252245Z 18003KT 23/21 A2993 RMK A01 T02260207  RH  089%=      5-min Rain = 0
KQU1 252246Z 18003KT 23/21 A2992 RMK A01 T02260208  RH  089%=      5-min Rain = 0
KQU1 252247Z 18004KT 23/21 A2992 RMK A01 T02260208  RH  089%=      5-min Rain = 0
KQU1 252248Z 17004KT 23/21 A2992 RMK A01 T02260207  RH  089%=      5-min Rain = 0
KQU1 252249Z 16004KT 23/21 A2992 RMK A01 T02260207  RH  089%=      5-min Rain = 0
KQU1 252250Z 15004KT 23/21 A2991 RMK A01 T02260207  RH  089%=      5-min Rain = 0
KQU1 252251Z 15004KT 23/21 A2991 RMK A01 T02260207  RH  089%=      5-min Rain = 0
KQU1 252252Z 15004KT 23/21 A2991 RMK A01 T02260207  RH  089%=      5-min Rain = 0
KQU1 252253Z 15004KT 23/21 A2992 RMK A01 T02260207  RH  089%=      5-min Rain = 0
KQU1 252254Z 15003KT 23/21 A2992 RMK A01 T02260207  RH  089%=      5-min Rain = 0
KQU1 252255Z 14002KT 23/21 A2992 RMK A01 T02260207  RH  089%=      5-min Rain = 0
KQU1 252256Z 12001KT 23/21 A2992 RMK A01 T02250207  RH  089%=      5-min Rain = 0
KQU1 252257Z 12001KT 23/21 A2992 RMK A01 T02250207  RH  089%=      5-min Rain = 0
KQU1 252258Z 05002KT 23/21 A2992 RMK A01 T02250207  RH  089%=      5-min Rain = 0
KQU1 252259Z 03003KT 23/21 A2992 RMK A01 T02250206  RH  089%=      5-min Rain = 0
KQU1 252300Z 01003KT 22/21 A2992 RMK A01 T02240206  RH  090%=      5-min Rain = 0
KQU1 252301Z 01003KT 22/21 A2992 RMK A01 T02230206  RH  090%=      5-min Rain = 0
KQU1 252302Z 00003KT 22/21 A2992 RMK A01 T02230206  RH  090%=      5-min Rain = 0
KQU1 252303Z 36004KT 22/21 A2992 RMK A01 T02220206  RH  090%=      5-min Rain = 0
KQU1 252304Z 00003KT 22/21 A2992 RMK A01 T02210205  RH  090%=      5-min Rain = 0
KQU1 252305Z 01003KT 22/20 A2992 RMK A01 T02210204  RH  090%=      5-min Rain = 0
KQU1 252306Z 02003KT 22/20 A2991 RMK A01 T02200202  RH  090%=      5-min Rain = 0
KQU1 252307Z 02002KT 22/20 A2991 RMK A01 T02190201  RH  090%=      5-min Rain = 0
KQU1 252308Z 01002KT 22/20 A2991 RMK A01 T02180200  RH  090%=      5-min Rain = 0
KQU1 252309Z 02001KT 22/20 A2992 RMK A01 T02170199  RH  090%=      5-min Rain = 0
KQU1 252310Z 02001KT 22/20 A2992 RMK A01 T02160199  RH  090%=      5-min Rain = 0
KQU1 252311Z 02001KT 22/20 A2993 RMK A01 T02160198  RH  090%=      5-min Rain = 0
KQU1 252312Z 02001KT 22/20 A2993 RMK A01 T02150198  RH  090%=      5-min Rain = 0
KQU1 252313Z 01002KT 22/20 A2993 RMK A01 T02150198  RH  090%=      5-min Rain = 0
KQU1 252314Z 01001KT 22/20 A2993 RMK A01 T02150198  RH  090%=      5-min Rain = 0
KQU1 252315Z 03003KT 21/20 A2992 RMK A01 T02140196  RH  089%=      5-min Rain = 0
KQU1 252316Z 04003KT 21/20 A2992 RMK A01 T02130195  RH  089%=      5-min Rain = 0
KQU1 252317Z 03002KT 21/19 A2992 RMK A01 T02120194  RH  089%=      5-min Rain = 0
KQU1 252318Z 05002KT 21/19 A2992 RMK A01 T02120194  RH  089%=      5-min Rain = 0
KQU1 252319Z 04003KT 21/19 A2991 RMK A01 T02110193  RH  089%=      5-min Rain = 0
KQU1 252320Z 04003KT 21/19 A2991 RMK A01 T02110193  RH  090%=      5-min Rain = 0
KQU1 252321Z 04003KT 21/19 A2991 RMK A01 T02100193  RH  090%=      5-min Rain = 0
KQU1 252322Z 04003KT 21/19 A299 RMK A01 T02100192  RH  090%=      5-min Rain = 0
KQU1 252323Z 03003KT 21/19 A299 RMK A01 T02100192  RH  090%=      5-min Rain = 0
KQU1 252324Z 05002KT 21/19 A299 RMK A01 T02090192  RH  090%=      5-min Rain = 0
KQU1 252325Z 00000KT 21/19 A299 RMK A01 T02090192  RH  090%=      5-min Rain = 0
KQU1 252326Z 00000KT 21/19 A2991 RMK A01 T02090192  RH  090%=      5-min Rain = 0
KQU1 252327Z 00000KT 21/19 A2991 RMK A01 T02090192  RH  090%=      5-min Rain = 0
KQU1 252328Z 00000KT 21/19 A2992 RMK A01 T02090192  RH  090%=      5-min Rain = 0
KQU1 252329Z 01000KT 21/19 A2992 RMK A01 T02090192  RH  090%=      5-min Rain = 0
KQU1 252330Z 00000KT 21/19 A2993 RMK A01 T02090192  RH  090%=      5-min Rain = 0
KQU1 252331Z 00000KT 21/19 A2993 RMK A01 T02090192  RH  090%=      5-min Rain = 0
KQU1 252332Z 25001KT 21/19 A2994 RMK A01 T02090192  RH  090%=      5-min Rain = 0
KQU1 252333Z 25002KT 21/19 A2994 RMK A01 T02090193  RH  090%=      5-min Rain = 0
KQU1 252334Z 24002KT 21/19 A2994 RMK A01 T02090193  RH  090%=      5-min Rain = 0
KQU1 252335Z 25003KT 21/19 A2994 RMK A01 T02100194  RH  091%=      5-min Rain = 0
KQU1 252336Z 25002KT 21/19 A2994 RMK A01 T02100194  RH  091%=      5-min Rain = 0
KQU1 252337Z 25001KT 21/20 A2993 RMK A01 T02100195  RH  091%=      5-min Rain = 0
KQU1 252338Z 27001KT 21/20 A2993 RMK A01 T02100195  RH  091%=      5-min Rain = 0
KQU1 252339Z 34001KT 21/20 A2992 RMK A01 T02100195  RH  091%=      5-min Rain = 0
KQU1 252340Z 06000KT 21/20 A2992 RMK A01 T02100195  RH  091%=      5-min Rain = 0
KQU1 252341Z 02002KT 21/20 A2992 RMK A01 T02100195  RH  091%=      5-min Rain = 0
KQU1 252342Z 01002KT 21/20 A2992 RMK A01 T02100195  RH  091%=      5-min Rain = 0
KQU1 252343Z 36001KT 21/19 A2992 RMK A01 T02100194  RH  091%=      5-min Rain = 0
KQU1 252344Z 35000KT 21/19 A2992 RMK A01 T02090194  RH  091%=      5-min Rain = 0
KQU1 252345Z 16000KT 21/20 A2993 RMK A01 T02090195  RH  091%=      5-min Rain = 0
KQU1 252346Z 17001KT 21/20 A2993 RMK A01 T02090196  RH  092%=      5-min Rain = 0
KQU1 252347Z 18002KT 21/20 A2994 RMK A01 T02100197  RH  092%=      5-min Rain = 0
KQU1 252348Z 16004KT 21/20 A2994 RMK A01 T02100197  RH  092%=      5-min Rain = 0
KQU1 252349Z 14007KT 21/20 A2994 RMK A01 T02110198  RH  092%=      5-min Rain = 0
KQU1 252350Z 16009KT 21/20 A2994 RMK A01 T02130203  RH  094%=      5-min Rain = 0
KQU1 252351Z 19014KT 22/21 A2996 RMK A01 T02160207  RH  094%=      5-min Rain = 0.01
KQU1 252352Z 22028G53KT 22/21 A2998 RMK A01 T02200206  RH  092%=      5-min Rain = 0.01
KQU1 252353Z 24033G42KT 22/18 A2999 RMK A01 T02150183  RH  082%=      5-min Rain = 0.02
KQU1 252354Z 24025G32KT 21/18 A2998 RMK A01 T02090182  RH  085%=      5-min Rain = 0.03
KQU1 252355Z 25021KT 21/18 A2998 RMK A01 T02050184  RH  088%=      5-min Rain = 0.02
KQU1 252356Z 24021G26KT 20/18 A2997 RMK A01 T02030183  RH  088%=      5-min Rain = 0.02
KQU1 252357Z 24026G32KT 20/18 A2997 RMK A01 T02020180  RH  087%=      5-min Rain = 0.03
KQU1 252358Z 24028G36KT 20/18 A2997 RMK A01 T02000179  RH  088%=      5-min Rain = 0.02
KQU1 252359Z 24025G30KT 20/18 A2998 RMK A01 T01990179  RH  088%=      5-min Rain = 0.02
KQU1 260000Z 22020G25KT 20/18 A2998 RMK A01 T01980176  RH  087%=      5-min Rain = 0.02
KQU1 260001Z 21024KT 20/17 A2998 RMK A01 T01980173  RH  085%=      5-min Rain = 0.01
KQU1 260002Z 22021G26KT 20/17 A2997 RMK A01 T01990170  RH  084%=      5-min Rain = 0.02
KQU1 260003Z 25017G22KT 20/17 A2997 RMK A01 T01990172  RH  084%=      5-min Rain = 0.01
KQU1 260004Z 26020G25KT 20/17 A2996 RMK A01 T01980173  RH  086%=      5-min Rain = 0.02
KQU1 260005Z 26016G23KT 20/18 A2995 RMK A01 T01980175  RH  086%=      5-min Rain = 0.03
KQU1 260006Z 27012G17KT 20/18 A2994 RMK A01 T01980176  RH  087%=      5-min Rain = 0.02
KQU1 260007Z 28012KT 20/18 A2994 RMK A01 T01980176  RH  087%=      5-min Rain = 0.01
KQU1 260008Z 29015KT 20/18 A2994 RMK A01 T01980176  RH  087%=      5-min Rain = 0.01
KQU1 260009Z 29016KT 20/18 A2994 RMK A01 T01980177  RH  088%=      5-min Rain = 0.01
KQU1 260010Z 29015KT 20/18 A2994 RMK A01 T01960177  RH  089%=      5-min Rain = 0.02
KQU1 260011Z 28016KT 20/18 A2994 RMK A01 T01950178  RH  090%=      5-min Rain = 0.02
KQU1 260012Z 27014KT 19/18 A2995 RMK A01 T01940179  RH  091%=      5-min Rain = 0.02
KQU1 260013Z 26014KT 19/18 A2996 RMK A01 T01940179  RH  091%=      5-min Rain = 0.02
KQU1 260014Z 25014KT 19/18 A2997 RMK A01 T01940179  RH  091%=      5-min Rain = 0.02
KQU1 260015Z 27015KT 19/18 A2998 RMK A01 T01930179  RH  091%=      5-min Rain = 0.04
KQU1 260016Z 29013KT 19/18 A2997 RMK A01 T01930177  RH  091%=      5-min Rain = 0.03
KQU1 260017Z 30009KT 19/18 A2996 RMK A01 T01920176  RH  091%=      5-min Rain = 0.02
KQU1 260018Z 30008KT 19/18 A2996 RMK A01 T01920177  RH  091%=      5-min Rain = 0.01
KQU1 260019Z 29008KT 19/18 A2997 RMK A01 T01910178  RH  092%=      5-min Rain = 0
KQU1 260020Z 28007KT 19/18 A2997 RMK A01 T01910178  RH  092%=      5-min Rain = 0
KQU1 260021Z 27010KT 19/18 A2997 RMK A01 T01910179  RH  093%=      5-min Rain = 0.01
KQU1 260022Z 27015KT 19/18 A2998 RMK A01 T01900178  RH  093%=      5-min Rain = 0
KQU1 260023Z 26020G27KT 19/18 A2998 RMK A01 T01900175  RH  091%=      5-min Rain = 0
KQU1 260024Z 26024G31KT 19/17 A2998 RMK A01 T01920169  RH  086%=      5-min Rain = 0.01
KQU1 260025Z 27026G31KT 19/17 A2998 RMK A01 T01920171  RH  088%=      5-min Rain = 0
KQU1 260026Z 26024G31KT 19/17 A2998 RMK A01 T01900165  RH  086%=      5-min Rain = 0.01
KQU1 260027Z 26019G26KT 19/16 A2998 RMK A01 T01870160  RH  084%=      5-min Rain = 0.02
KQU1 260028Z 26015G20KT 18/16 A2998 RMK A01 T01840162  RH  087%=      5-min Rain = 0.02
KQU1 260029Z 26020KT 18/16 A2998 RMK A01 T01810159  RH  087%=      5-min Rain = 0.01
KQU1 260030Z 26021KT 18/15 A2998 RMK A01 T01780154  RH  086%=      5-min Rain = 0
KQU1 260031Z 25022KT 18/16 A2999 RMK A01 T01770155  RH  087%=      5-min Rain = 0.01
KQU1 260032Z 25023G31KT 18/16 A30 RMK A01 T01770156  RH  088%=      5-min Rain = 0
KQU1 260033Z 24021G28KT 18/16 A30 RMK A01 T01770159  RH  089%=      5-min Rain = 0
KQU1 260034Z 26020KT 18/16 A30 RMK A01 T01760160  RH  090%=      5-min Rain = 0.01
KQU1 260035Z 28025G35KT 17/16 A30 RMK A01 T01740156  RH  089%=      5-min Rain = 0
KQU1 260036Z 28027G37KT 17/15 A30 RMK A01 T01710154  RH  089%=      5-min Rain = 0.01
KQU1 260037Z 27029G34KT 17/15 A30 RMK A01 T01700154  RH  090%=      5-min Rain = 0
KQU1 260038Z 26023G28KT 17/16 A30 RMK A01 T01690155  RH  091%=      5-min Rain = 0.01
KQU1 260039Z 26024G34KT 17/16 A30 RMK A01 T01680155  RH  092%=      5-min Rain = 0.02
KQU1 260040Z 25030G36KT 17/15 A2999 RMK A01 T01660152  RH  092%=      5-min Rain = 0.03
KQU1 260041Z 26037G42KT 16/15 A2999 RMK A01 T01610148  RH  092%=      5-min Rain = 0.07
KQU1 260042Z 27035G42KT 16/14 A2998 RMK A01 T01550143  RH  092%=      5-min Rain = 0.06
KQU1 260043Z 28029G35KT 15/14 A2997 RMK A01 T01510143  RH  095%=      5-min Rain = 0.06
KQU1 260044Z 27029KT 15/15 A2997 RMK A01 T01510147  RH  097%=      5-min Rain = 0.06
KQU1 260045Z 27039G50KT 15/15 A2996 RMK A01 T01530150  RH  098%=      5-min Rain = 0.05
KQU1 260046Z 28040G51KT 15/15 A2996 RMK A01 T01530152  RH  099%=      5-min Rain = 0.06
KQU1 260047Z 28037KT 15/15 A2997 RMK A01 T01490148  RH  099%=      5-min Rain = 0.06
KQU1 260048Z 27026G31KT 15/15 A2998 RMK A01 T01500149  RH  099%=      5-min Rain = 0.05
KQU1 260049Z 28017G26KT 15/15 A2998 RMK A01 T01510150  RH  099%=      5-min Rain = 0.04
KQU1 260050Z 26019G26KT 15/15 A2997 RMK A01 T01510150  RH  099%=      5-min Rain = 0.05
KQU1 260051Z 27013G22KT 15/15 A2996 RMK A01 T01530152  RH  099%=      5-min Rain = 0.03
KQU1 260052Z 28010KT 16/16 A2995 RMK A01 T01550155  RH  099%=      5-min Rain = 0.01
KQU1 260053Z 29011KT 16/15 A2995 RMK A01 T01550154  RH  099%=      5-min Rain = 0.01
KQU1 260054Z 31014KT 16/15 A2996 RMK A01 T01550154  RH  099%=      5-min Rain = 0
KQU1 260055Z 31013KT 15/15 A2996 RMK A01 T01530153  RH  099%=      5-min Rain = 0
KQU1 260056Z 31010KT 15/15 A2996 RMK A01 T01540153  RH  099%=      5-min Rain = 0
KQU1 260057Z 31007KT 15/15 A2996 RMK A01 T01540153  RH  099%=      5-min Rain = 0
KQU1 260058Z 31007KT 15/15 A2996 RMK A01 T01540153  RH  099%=      5-min Rain = 0
KQU1 260059Z 28005KT 15/15 A2996 RMK A01 T01540153  RH  099%=      5-min Rain = 0
KQU1 260100Z 27007KT 16/15 A2996 RMK A01 T01550154  RH  099%=      5-min Rain = 0
KQU1 260101Z 28006KT 16/16 A2996 RMK A01 T01560155  RH  099%=      5-min Rain = 0
KQU1 260102Z 27008KT 16/16 A2995 RMK A01 T01570156  RH  099%=      5-min Rain = 0
KQU1 260103Z 26008KT 16/16 A2995 RMK A01 T01570156  RH  099%=      5-min Rain = 0
KQU1 260104Z 27009KT 16/16 A2995 RMK A01 T01570157  RH  099%=      5-min Rain = 0
KQU1 260105Z 26009KT 16/16 A2995 RMK A01 T01590158  RH  099%=      5-min Rain = 0
KQU1 260106Z 26008KT 16/16 A2995 RMK A01 T01600159  RH  099%=      5-min Rain = 0
KQU1 260107Z 26007KT 16/16 A2996 RMK A01 T01610160  RH  099%=      5-min Rain = 0
KQU1 260108Z 26007KT 16/16 A2996 RMK A01 T01620161  RH  099%=      5-min Rain = 0
KQU1 260109Z 26007KT 16/16 A2995 RMK A01 T01620161  RH  099%=      5-min Rain = 0
KQU1 260110Z 28006KT 16/16 A2995 RMK A01 T01620161  RH  099%=      5-min Rain = 0
KQU1 260111Z 28005KT 16/16 A2995 RMK A01 T01620161  RH  099%=      5-min Rain = 0
KQU1 260112Z 29006KT 16/16 A2995 RMK A01 T01630162  RH  099%=      5-min Rain = 0
KQU1 260113Z 30006KT 16/16 A2995 RMK A01 T01630162  RH  099%=      5-min Rain = 0
KQU1 260114Z 28006KT 16/16 A2995 RMK A01 T01630162  RH  099%=      5-min Rain = 0
KQU1 260115Z 27007KT 16/16 A2994 RMK A01 T01620161  RH  099%=      5-min Rain = 0
KQU1 260116Z 27006KT 16/16 A2994 RMK A01 T01620161  RH  099%=      5-min Rain = 0
KQU1 260117Z 26004KT 16/16 A2994 RMK A01 T01620161  RH  099%=      5-min Rain = 0
KQU1 260118Z 26005KT 16/16 A2994 RMK A01 T01630161  RH  099%=      5-min Rain = 0
KQU1 260119Z 27005KT 16/16 A2994 RMK A01 T01620160  RH  099%=      5-min Rain = 0
KQU1 260120Z 26006KT 16/16 A2994 RMK A01 T01630160  RH  099%=      5-min Rain = 0
KQU1 260121Z 25006KT 16/16 A2994 RMK A01 T01630161  RH  099%=      5-min Rain = 0
KQU1 260122Z 26006KT 16/16 A2994 RMK A01 T01630161  RH  099%=      5-min Rain = 0
KQU1 260123Z 26006KT 16/16 A2993 RMK A01 T01630161  RH  099%=      5-min Rain = 0
KQU1 260124Z 26006KT 16/16 A2993 RMK A01 T01640162  RH  099%=      5-min Rain = 0
KQU1 260125Z 26007KT 16/16 A2993 RMK A01 T01640162  RH  099%=      5-min Rain = 0
KQU1 260126Z 25007KT 17/16 A2993 RMK A01 T01650163  RH  099%=      5-min Rain = 0
KQU1 260127Z 26008KT 17/16 A2993 RMK A01 T01660164  RH  099%=      5-min Rain = 0
KQU1 260128Z 26007KT 17/17 A2993 RMK A01 T01670165  RH  099%=      5-min Rain = 0
KQU1 260129Z 26007KT 17/17 A2993 RMK A01 T01680165  RH  099%=      5-min Rain = 0
KQU1 260130Z 26006KT 17/17 A2993 RMK A01 T01680166  RH  098%=      5-min Rain = 0
KQU1 260131Z 25006KT 17/17 A2993 RMK A01 T01680166  RH  098%=      5-min Rain = 0
KQU1 260132Z 25006KT 17/17 A2993 RMK A01 T01680166  RH  098%=      5-min Rain = 0
KQU1 260133Z 24005KT 17/17 A2993 RMK A01 T01680166  RH  098%=      5-min Rain = 0
KQU1 260134Z 24004KT 17/17 A2993 RMK A01 T01680166  RH  098%=      5-min Rain = 0
KQU1 260135Z 24005KT 17/17 A2993 RMK A01 T01680166  RH  098%=      5-min Rain = 0
KQU1 260136Z 25006KT 17/17 A2993 RMK A01 T01680166  RH  098%=      5-min Rain = 0
KQU1 260137Z 25005KT 17/17 A2993 RMK A01 T01690166  RH  098%=      5-min Rain = 0
KQU1 260138Z 25006KT 17/17 A2993 RMK A01 T01690166  RH  099%=      5-min Rain = 0
KQU1 260139Z 25005KT 17/17 A2993 RMK A01 T01690167  RH  099%=      5-min Rain = 0
KQU1 260140Z 25006KT 17/17 A2993 RMK A01 T01690167  RH  099%=      5-min Rain = 0
KQU1 260141Z 25007KT 17/17 A2993 RMK A01 T01700168  RH  099%=      5-min Rain = 0
KQU1 260142Z 25008KT 17/17 A2993 RMK A01 T01700168  RH  099%=      5-min Rain = 0
KQU1 260143Z 25008KT 17/17 A2993 RMK A01 T01720170  RH  099%=      5-min Rain = 0
KQU1 260144Z 26007KT 17/17 A2993 RMK A01 T01730171  RH  099%=      5-min Rain = 0
KQU1 260145Z 26008KT 17/17 A2993 RMK A01 T01730171  RH  099%=      5-min Rain = 0
KQU1 260146Z 25008KT 17/17 A2993 RMK A01 T01740171  RH  098%=      5-min Rain = 0
KQU1 260147Z 26007KT 17/17 A2993 RMK A01 T01740171  RH  098%=      5-min Rain = 0
KQU1 260148Z 26007KT 17/17 A2993 RMK A01 T01730170  RH  098%=      5-min Rain = 0
KQU1 260149Z 26007KT 17/17 A2993 RMK A01 T01720169  RH  098%=      5-min Rain = 0
KQU1 260150Z 26008KT 17/17 A2993 RMK A01 T01710168  RH  098%=      5-min Rain = 0
KQU1 260151Z 26008KT 17/17 A2993 RMK A01 T01710167  RH  098%=      5-min Rain = 0
KQU1 260152Z 26008KT 17/17 A2993 RMK A01 T01710167  RH  098%=      5-min Rain = 0
KQU1 260153Z 26008KT 17/17 A2993 RMK A01 T01710167  RH  098%=      5-min Rain = 0
KQU1 260154Z 25009KT 17/17 A2993 RMK A01 T01710167  RH  098%=      5-min Rain = 0
KQU1 260155Z 25008KT 17/17 A2993 RMK A01 T01710168  RH  098%=      5-min Rain = 0
KQU1 260156Z 25008KT 17/17 A2993 RMK A01 T01720169  RH  098%=      5-min Rain = 0
KQU1 260157Z 25009KT 17/17 A2993 RMK A01 T01720169  RH  098%=      5-min Rain = 0
KQU1 260158Z 25008KT 17/17 A2992 RMK A01 T01730169  RH  098%=      5-min Rain = 0
KQU1 260159Z 24009KT 17/17 A2992 RMK A01 T01730170  RH  098%=      5-min Rain = 0
KQU1 260200Z 24010KT 17/17 A2992 RMK A01 T01740170  RH  098%=      5-min Rain = 0
KQU1 260201Z 23009KT 18/17 A2992 RMK A01 T01750172  RH  098%=      5-min Rain = 0
KQU1 260202Z 23010KT 18/17 A2992 RMK A01 T01770174  RH  098%=      5-min Rain = 0
KQU1 260203Z 23010KT 18/18 A2992 RMK A01 T01780175  RH  098%=      5-min Rain = 0
KQU1 260204Z 22010KT 18/18 A2992 RMK A01 T01790175  RH  098%=      5-min Rain = 0
KQU1 260205Z 22009KT 18/18 A2992 RMK A01 T01800176  RH  098%=      5-min Rain = 0
KQU1 260206Z 22010KT 18/18 A2992 RMK A01 T01810177  RH  098%=      5-min Rain = 0
KQU1 260207Z 22010KT 18/18 A2992 RMK A01 T01820178  RH  097%=      5-min Rain = 0
KQU1 260208Z 22010KT 18/18 A2992 RMK A01 T01830179  RH  097%=      5-min Rain = 0
KQU1 260209Z 21009KT 18/18 A2992 RMK A01 T01840179  RH  097%=      5-min Rain = 0
KQU1 260210Z 21009KT 19/18 A2992 RMK A01 T01850179  RH  097%=      5-min Rain = 0
KQU1 260211Z 21009KT 19/18 A2992 RMK A01 T01850179  RH  096%=      5-min Rain = 0
KQU1 260212Z 20009KT 19/18 A2992 RMK A01 T01860179  RH  096%=      5-min Rain = 0
KQU1 260213Z 21010KT 19/18 A2992 RMK A01 T01870179  RH  095%=      5-min Rain = 0
KQU1 260214Z 21010KT 19/18 A2992 RMK A01 T01880179  RH  095%=      5-min Rain = 0
KQU1 260215Z 20009KT 19/18 A2992 RMK A01 T01880179  RH  094%=      5-min Rain = 0
KQU1 260216Z 21010KT 19/18 A2992 RMK A01 T01890179  RH  094%=      5-min Rain = 0
KQU1 260217Z 21011KT 19/18 A2992 RMK A01 T01890179  RH  094%=      5-min Rain = 0
KQU1 260218Z 20010KT 19/18 A2992 RMK A01 T01910180  RH  093%=      5-min Rain = 0
KQU1 260219Z 21009KT 19/18 A2992 RMK A01 T01920180  RH  093%=      5-min Rain = 0
KQU1 260220Z 21011KT 19/18 A2992 RMK A01 T01920180  RH  092%=      5-min Rain = 0
KQU1 260221Z 21011KT 19/18 A2992 RMK A01 T01930180  RH  092%=      5-min Rain = 0
KQU1 260222Z 21012KT 19/18 A2992 RMK A01 T01940180  RH  091%=      5-min Rain = 0
KQU1 260223Z 21011KT 19/18 A2992 RMK A01 T01940179  RH  091%=      5-min Rain = 0
KQU1 260224Z 20009KT 19/18 A2992 RMK A01 T01940178  RH  091%=      5-min Rain = 0
KQU1 260225Z 20009KT 19/18 A2992 RMK A01 T01930178  RH  091%=      5-min Rain = 0
KQU1 260226Z 20009KT 19/18 A2992 RMK A01 T01920177  RH  091%=      5-min Rain = 0
KQU1 260227Z 21010KT 19/18 A2992 RMK A01 T01910176  RH  091%=      5-min Rain = 0
KQU1 260228Z 21010KT 19/18 A2992 RMK A01 T01910176  RH  091%=      5-min Rain = 0
KQU1 260229Z 21009KT 19/18 A2992 RMK A01 T01900176  RH  091%=      5-min Rain = 0
KQU1 260230Z 21010KT 19/18 A2992 RMK A01 T01900175  RH  091%=      5-min Rain = 0
KQU1 260231Z 21010KT 19/18 A2992 RMK A01 T01890175  RH  091%=      5-min Rain = 0
KQU1 260232Z 21010KT 19/18 A2992 RMK A01 T01900175  RH  091%=      5-min Rain = 0
KQU1 260233Z 21010KT 19/18 A2992 RMK A01 T01900175  RH  091%=      5-min Rain = 0
KQU1 260234Z 21010KT 19/18 A2992 RMK A01 T01900175  RH  091%=      5-min Rain = 0
KQU1 260235Z 22009KT 19/18 A2992 RMK A01 T01900175  RH  091%=      5-min Rain = 0
KQU1 260236Z 22010KT 19/17 A2992 RMK A01 T01900174  RH  090%=      5-min Rain = 0
KQU1 260237Z 21010KT 19/17 A2993 RMK A01 T01900174  RH  090%=      5-min Rain = 0
KQU1 260238Z 22011KT 19/17 A2993 RMK A01 T01900174  RH  090%=      5-min Rain = 0
KQU1 260239Z 22010KT 19/17 A2992 RMK A01 T01910174  RH  090%=      5-min Rain = 0
KQU1 260240Z 22011KT 19/17 A2992 RMK A01 T01910174  RH  090%=      5-min Rain = 0
KQU1 260241Z 22011KT 19/17 A2993 RMK A01 T01910174  RH  090%=      5-min Rain = 0
KQU1 260242Z 21010KT 19/17 A2993 RMK A01 T01920174  RH  090%=      5-min Rain = 0
KQU1 260243Z 22011KT 19/18 A2993 RMK A01 T01930175  RH  090%=      5-min Rain = 0
KQU1 260244Z 21010KT 19/18 A2993 RMK A01 T01940175  RH  089%=      5-min Rain = 0
KQU1 260245Z 21010KT 20/18 A2993 RMK A01 T01950175  RH  088%=      5-min Rain = 0
KQU1 260246Z 20008KT 20/18 A2993 RMK A01 T01950175  RH  088%=      5-min Rain = 0
KQU1 260247Z 19006KT 20/18 A2993 RMK A01 T01950175  RH  088%=      5-min Rain = 0
KQU1 260248Z 20007KT 19/17 A2993 RMK A01 T01930173  RH  088%=      5-min Rain = 0
KQU1 260249Z 20007KT 19/17 A2993 RMK A01 T01910172  RH  089%=      5-min Rain = 0
KQU1 260250Z 21009KT 19/17 A2993 RMK A01 T01910173  RH  090%=      5-min Rain = 0
KQU1 260251Z 21013KT 19/18 A2993 RMK A01 T01910175  RH  090%=      5-min Rain = 0
KQU1 260252Z 20013KT 19/18 A2993 RMK A01 T01940176  RH  089%=      5-min Rain = 0
KQU1 260253Z 20012KT 20/18 A2993 RMK A01 T01970176  RH  088%=      5-min Rain = 0
KQU1 260254Z 20013KT 20/18 A2993 RMK A01 T01970175  RH  087%=      5-min Rain = 0
KQU1 260255Z 19012KT 20/17 A2993 RMK A01 T01980174  RH  086%=      5-min Rain = 0
KQU1 260256Z 20013KT 20/17 A2993 RMK A01 T01980174  RH  086%=      5-min Rain = 0
KQU1 260257Z 20014KT 20/17 A2992 RMK A01 T01980173  RH  086%=      5-min Rain = 0
KQU1 260258Z 20012KT 20/17 A2992 RMK A01 T01980173  RH  085%=      5-min Rain = 0
KQU1 260259Z 19012KT 20/17 A2992 RMK A01 T01990173  RH  085%=      5-min Rain = 0
KQU1 260300Z 19012KT 20/17 A2993 RMK A01 T01980172  RH  085%=      5-min Rain = 0
KQU1 260301Z 19013KT 20/17 A2993 RMK A01 T01970171  RH  085%=      5-min Rain = 0
KQU1 260302Z 20014KT 20/17 A2992 RMK A01 T01970171  RH  085%=      5-min Rain = 0
KQU1 260303Z 20013KT 20/17 A2992 RMK A01 T01980170  RH  084%=      5-min Rain = 0
KQU1 260304Z 20013KT 20/17 A2992 RMK A01 T01970170  RH  084%=      5-min Rain = 0
KQU1 260305Z 20013KT 20/17 A2992 RMK A01 T01960170  RH  085%=      5-min Rain = 0
KQU1 260306Z 21013KT 20/17 A2992 RMK A01 T01950170  RH  085%=      5-min Rain = 0
KQU1 260307Z 21013KT 20/17 A2992 RMK A01 T01950170  RH  085%=      5-min Rain = 0
KQU1 260308Z 21012KT 20/17 A2992 RMK A01 T01950170  RH  086%=      5-min Rain = 0
KQU1 260309Z 21011KT 20/17 A2992 RMK A01 T01950171  RH  086%=      5-min Rain = 0
KQU1 260310Z 20013KT 20/17 A2992 RMK A01 T01950172  RH  086%=      5-min Rain = 0
KQU1 260311Z 20012KT 20/17 A2992 RMK A01 T01960173  RH  087%=      5-min Rain = 0
KQU1 260312Z 20013KT 20/17 A2993 RMK A01 T01960173  RH  086%=      5-min Rain = 0
KQU1 260313Z 20012KT 20/17 A2993 RMK A01 T01960172  RH  086%=      5-min Rain = 0
KQU1 260314Z 20012KT 20/17 A2993 RMK A01 T01950172  RH  086%=      5-min Rain = 0
KQU1 260315Z 21013KT 19/17 A2993 RMK A01 T01940172  RH  087%=      5-min Rain = 0
KQU1 260316Z 21012KT 19/17 A2993 RMK A01 T01940172  RH  087%=      5-min Rain = 0
KQU1 260317Z 20012KT 19/17 A2993 RMK A01 T01940172  RH  087%=      5-min Rain = 0
KQU1 260318Z 20010KT 19/17 A2993 RMK A01 T01940172  RH  087%=      5-min Rain = 0
KQU1 260319Z 19009KT 19/17 A2993 RMK A01 T01930171  RH  087%=      5-min Rain = 0
KQU1 260320Z 18009KT 19/17 A2993 RMK A01 T01920170  RH  087%=      5-min Rain = 0
KQU1 260321Z 20012KT 19/17 A2993 RMK A01 T01900171  RH  088%=      5-min Rain = 0
KQU1 260322Z 20012KT 19/17 A2993 RMK A01 T01910173  RH  089%=      5-min Rain = 0
KQU1 260323Z 20013KT 19/17 A2993 RMK A01 T01920173  RH  089%=      5-min Rain = 0
KQU1 260324Z 19012KT 19/17 A2993 RMK A01 T01940174  RH  088%=      5-min Rain = 0
KQU1 260325Z 19011KT 20/17 A2993 RMK A01 T01950173  RH  087%=      5-min Rain = 0
KQU1 260326Z 19009KT 19/17 A2993 RMK A01 T01940172  RH  087%=      5-min Rain = 0
KQU1 260327Z 20010KT 19/17 A2993 RMK A01 T01940172  RH  088%=      5-min Rain = 0
KQU1 260328Z 19010KT 19/17 A2993 RMK A01 T01930172  RH  088%=      5-min Rain = 0
KQU1 260329Z 19010KT 19/17 A2993 RMK A01 T01920172  RH  088%=      5-min Rain = 0
KQU1 260330Z 19011KT 19/17 A2993 RMK A01 T01910172  RH  089%=      5-min Rain = 0
KQU1 260331Z 19012KT 19/17 A2993 RMK A01 T01910172  RH  089%=      5-min Rain = 0
KQU1 260332Z 19012KT 19/17 A2993 RMK A01 T01920173  RH  089%=      5-min Rain = 0
KQU1 260333Z 20011KT 19/17 A2993 RMK A01 T01920173  RH  089%=      5-min Rain = 0
KQU1 260334Z 20011KT 19/17 A2993 RMK A01 T01930174  RH  089%=      5-min Rain = 0
KQU1 260335Z 19011KT 19/18 A2993 RMK A01 T01940175  RH  089%=      5-min Rain = 0
KQU1 260336Z 19010KT 19/18 A2993 RMK A01 T01940175  RH  089%=      5-min Rain = 0
KQU1 260337Z 19011KT 19/18 A2993 RMK A01 T01940175  RH  089%=      5-min Rain = 0
KQU1 260338Z 19011KT 20/18 A2993 RMK A01 T01950176  RH  089%=      5-min Rain = 0
KQU1 260339Z 19011KT 20/18 A2993 RMK A01 T01950176  RH  089%=      5-min Rain = 0
KQU1 260340Z 19011KT 20/18 A2993 RMK A01 T01950176  RH  089%=      5-min Rain = 0
KQU1 260341Z 19011KT 20/18 A2993 RMK A01 T01950176  RH  089%=      5-min Rain = 0
KQU1 260342Z 19011KT 20/18 A2993 RMK A01 T01950176  RH  089%=      5-min Rain = 0
KQU1 260343Z 19011KT 20/18 A2993 RMK A01 T01950176  RH  089%=      5-min Rain = 0
KQU1 260344Z 19011KT 20/18 A2993 RMK A01 T01950176  RH  089%=      5-min Rain = 0
KQU1 260345Z 19011KT 19/18 A2993 RMK A01 T01940176  RH  089%=      5-min Rain = 0
KQU1 260346Z 19010KT 19/18 A2993 RMK A01 T01940176  RH  089%=      5-min Rain = 0
KQU1 260347Z 19010KT 19/18 A2994 RMK A01 T01940176  RH  089%=      5-min Rain = 0
KQU1 260348Z 19010KT 19/18 A2994 RMK A01 T01930176  RH  089%=      5-min Rain = 0
KQU1 260349Z 19010KT 19/18 A2994 RMK A01 T01930175  RH  090%=      5-min Rain = 0
KQU1 260350Z 19010KT 19/18 A2994 RMK A01 T01920175  RH  090%=      5-min Rain = 0
KQU1 260351Z 19010KT 19/18 A2994 RMK A01 T01920175  RH  090%=      5-min Rain = 0
KQU1 260352Z 20010KT 19/18 A2994 RMK A01 T01910175  RH  090%=      5-min Rain = 0
KQU1 260353Z 19010KT 19/18 A2994 RMK A01 T01910175  RH  090%=      5-min Rain = 0
KQU1 260354Z 19009KT 19/18 A2994 RMK A01 T01910175  RH  090%=      5-min Rain = 0
KQU1 260355Z 19010KT 19/18 A2994 RMK A01 T01910175  RH  091%=      5-min Rain = 0
KQU1 260356Z 19010KT 19/18 A2994 RMK A01 T01910175  RH  090%=      5-min Rain = 0
KQU1 260357Z 19009KT 19/18 A2994 RMK A01 T01910175  RH  091%=      5-min Rain = 0
KQU1 260358Z 19009KT 19/18 A2994 RMK A01 T01910175  RH  090%=      5-min Rain = 0
KQU1 260359Z 19008KT 19/18 A2994 RMK A01 T01910175  RH  090%=      5-min Rain = 0
KQU1 260400Z 18009KT 19/18 A2994 RMK A01 T01900175  RH  091%=      5-min Rain = 0
KQU1 260401Z 18009KT 19/18 A2994 RMK A01 T01910175  RH  091%=      5-min Rain = 0
KQU1 260402Z 18009KT 19/18 A2994 RMK A01 T01910176  RH  091%=      5-min Rain = 0
KQU1 260403Z 18009KT 19/18 A2994 RMK A01 T01920176  RH  090%=      5-min Rain = 0
KQU1 260404Z 18008KT 19/18 A2994 RMK A01 T01920176  RH  090%=      5-min Rain = 0
KQU1 260405Z 18008KT 19/18 A2994 RMK A01 T01920175  RH  090%=      5-min Rain = 0
KQU1 260406Z 18007KT 19/18 A2994 RMK A01 T01920175  RH  090%=      5-min Rain = 0
KQU1 260407Z 18007KT 19/18 A2994 RMK A01 T01910175  RH  090%=      5-min Rain = 0
KQU1 260408Z 18007KT 19/18 A2994 RMK A01 T01910175  RH  090%=      5-min Rain = 0
KQU1 260409Z 18007KT 19/18 A2994 RMK A01 T01910175  RH  090%=      5-min Rain = 0
KQU1 260410Z 18008KT 19/18 A2994 RMK A01 T01910175  RH  090%=      5-min Rain = 0
KQU1 260411Z 18008KT 19/18 A2994 RMK A01 T01910175  RH  091%=      5-min Rain = 0
KQU1 260412Z 17007KT 19/18 A2994 RMK A01 T01910175  RH  091%=      5-min Rain = 0
KQU1 260413Z 18008KT 19/18 A2994 RMK A01 T01910175  RH  091%=      5-min Rain = 0
KQU1 260414Z 18008KT 19/18 A2994 RMK A01 T01910175  RH  091%=      5-min Rain = 0
KQU1 260415Z 18008KT 19/18 A2994 RMK A01 T01910175  RH  091%=      5-min Rain = 0
KQU1 260416Z 17007KT 19/18 A2994 RMK A01 T01910175  RH  090%=      5-min Rain = 0
KQU1 260417Z 17007KT 19/18 A2994 RMK A01 T01910175  RH  090%=      5-min Rain = 0
KQU1 260418Z 17007KT 19/18 A2994 RMK A01 T01910175  RH  090%=      5-min Rain = 0
KQU1 260419Z 17008KT 19/18 A2994 RMK A01 T01910175  RH  090%=      5-min Rain = 0
KQU1 260420Z 17007KT 19/17 A2994 RMK A01 T01900174  RH  090%=      5-min Rain = 0
KQU1 260421Z 17007KT 19/18 A2994 RMK A01 T01910175  RH  090%=      5-min Rain = 0
KQU1 260422Z 17007KT 19/17 A2994 RMK A01 T01910174  RH  090%=      5-min Rain = 0
KQU1 260423Z 17007KT 19/17 A2994 RMK A01 T01900174  RH  090%=      5-min Rain = 0
KQU1 260424Z 17007KT 19/17 A2994 RMK A01 T01910174  RH  090%=      5-min Rain = 0
KQU1 260425Z 17006KT 19/17 A2994 RMK A01 T01910174  RH  090%=      5-min Rain = 0
KQU1 260426Z 16006KT 19/17 A2994 RMK A01 T01910174  RH  090%=      5-min Rain = 0
KQU1 260427Z 16006KT 19/17 A2994 RMK A01 T01900173  RH  090%=      5-min Rain = 0
KQU1 260428Z 16006KT 19/17 A2994 RMK A01 T01900173  RH  090%=      5-min Rain = 0
KQU1 260429Z 16007KT 19/17 A2994 RMK A01 T01900173  RH  090%=      5-min Rain = 0
KQU1 260430Z 16006KT 19/17 A2994 RMK A01 T01900173  RH  090%=      5-min Rain = 0
KQU1 260431Z 16006KT 19/17 A2994 RMK A01 T01890172  RH  090%=      5-min Rain = 0
KQU1 260432Z 16006KT 19/17 A2994 RMK A01 T01890172  RH  090%=      5-min Rain = 0
KQU1 260433Z 16006KT 19/17 A2995 RMK A01 T01890172  RH  090%=      5-min Rain = 0
KQU1 260434Z 16006KT 19/17 A2995 RMK A01 T01880171  RH  090%=      5-min Rain = 0
KQU1 260435Z 16006KT 19/17 A2995 RMK A01 T01880171  RH  090%=      5-min Rain = 0
KQU1 260436Z 16006KT 19/17 A2995 RMK A01 T01870171  RH  090%=      5-min Rain = 0
KQU1 260437Z 15006KT 19/17 A2995 RMK A01 T01870171  RH  090%=      5-min Rain = 0
KQU1 260438Z 15006KT 19/17 A2995 RMK A01 T01870170  RH  090%=      5-min Rain = 0
KQU1 260439Z 15006KT 19/17 A2995 RMK A01 T01860170  RH  090%=      5-min Rain = 0
KQU1 260440Z 14006KT 19/17 A2994 RMK A01 T01860170  RH  090%=      5-min Rain = 0
KQU1 260441Z 14007KT 19/17 A2994 RMK A01 T01850169  RH  090%=      5-min Rain = 0
KQU1 260442Z 14007KT 19/17 A2994 RMK A01 T01850170  RH  091%=      5-min Rain = 0
KQU1 260443Z 14007KT 19/17 A2994 RMK A01 T01850169  RH  091%=      5-min Rain = 0
KQU1 260444Z 14007KT 19/17 A2994 RMK A01 T01850169  RH  091%=      5-min Rain = 0
KQU1 260445Z 14007KT 18/17 A2994 RMK A01 T01840168  RH  091%=      5-min Rain = 0
KQU1 260446Z 14008KT 18/17 A2995 RMK A01 T01840168  RH  091%=      5-min Rain = 0
KQU1 260447Z 14008KT 18/17 A2995 RMK A01 T01830167  RH  091%=      5-min Rain = 0
KQU1 260448Z 14007KT 18/17 A2995 RMK A01 T01830167  RH  091%=      5-min Rain = 0
KQU1 260449Z 14008KT 18/17 A2995 RMK A01 T01820166  RH  091%=      5-min Rain = 0
KQU1 260450Z 14008KT 18/17 A2995 RMK A01 T01810166  RH  091%=      5-min Rain = 0
KQU1 260451Z 14008KT 18/17 A2995 RMK A01 T01810166  RH  091%=      5-min Rain = 0
KQU1 260452Z 14008KT 18/17 A2995 RMK A01 T01800165  RH  091%=      5-min Rain = 0
KQU1 260453Z 14008KT 18/17 A2995 RMK A01 T01790165  RH  091%=      5-min Rain = 0
KQU1 260454Z 14008KT 18/16 A2995 RMK A01 T01790164  RH  091%=      5-min Rain = 0
KQU1 260455Z 14008KT 18/16 A2994 RMK A01 T01780164  RH  091%=      5-min Rain = 0
KQU1 260456Z 14008KT 18/16 A2995 RMK A01 T01780163  RH  091%=      5-min Rain = 0
KQU1 260457Z 14008KT 18/16 A2995 RMK A01 T01770163  RH  091%=      5-min Rain = 0
KQU1 260458Z 14008KT 18/16 A2995 RMK A01 T01770162  RH  091%=      5-min Rain = 0
KQU1 260459Z 14007KT 18/16 A2995 RMK A01 T01760162  RH  091%=      5-min Rain = 0

Page generated in 0.0346 seconds.